GFSNIL_prec_pwat_000.txt.gz
Precipitable_Water
0.65 0.62 0.61 0.61 0.60 0.57 0.54 0.52 0.54 0.54 0.51 0.47 0.46 0.47 0.43 0.41 0.39 0.38 0.36 0.35 0.36 0.37
0.66 0.63 0.60 0.61 0.60 0.57 0.53 0.51 0.51 0.52 0.48 0.49 0.46 0.43 0.41 0.38 0.36 0.36 0.34 0.34 0.34 0.33
0.63 0.63 0.61 0.59 0.57 0.52 0.53 0.54 0.52 0.50 0.49 0.43 0.41 0.39 0.37 0.35 0.34 0.32 0.32 0.31 0.31 0.32
0.58 0.58 0.56 0.54 0.50 0.54 0.53 0.53 0.51 0.48 0.41 0.39 0.38 0.35 0.33 0.31 0.30 0.28 0.26 0.27 0.26 0.26
0.53 0.51 0.48 0.45 0.49 0.52 0.50 0.51 0.45 0.41 0.40 0.38 0.35 0.32 0.29 0.26 0.25 0.24 0.24 0.24 0.24 0.24
0.48 0.45 0.44 0.48 0.49 0.52 0.48 0.44 0.42 0.41 0.38 0.34 0.30 0.26 0.24 0.23 0.23 0.23 0.23 0.23 0.23 0.24
0.44 0.45 0.49 0.49 0.49 0.47 0.43 0.42 0.41 0.39 0.33 0.28 0.23 0.21 0.22 0.22 0.23 0.23 0.24 0.25 0.26 0.27
0.50 0.51 0.52 0.48 0.45 0.43 0.41 0.41 0.37 0.29 0.23 0.21 0.21 0.21 0.22 0.23 0.23 0.23 0.23 0.25 0.25 0.26
0.55 0.50 0.47 0.45 0.41 0.40 0.38 0.32 0.24 0.20 0.19 0.20 0.21 0.22 0.23 0.24 0.24 0.25 0.24 0.24 0.27 0.29
0.53 0.46 0.43 0.40 0.39 0.37 0.29 0.22 0.19 0.18 0.19 0.20 0.22 0.23 0.25 0.26 0.27 0.27 0.28 0.29 0.30 0.31
0.45 0.41 0.40 0.37 0.36 0.27 0.21 0.19 0.18 0.19 0.21 0.21 0.23 0.24 0.26 0.27 0.28 0.30 0.31 0.32 0.32 0.32
0.39 0.36 0.35 0.32 0.23 0.19 0.18 0.17 0.19 0.21 0.21 0.21 0.24 0.27 0.28 0.30 0.31 0.32 0.33 0.34 0.35 0.35
0.35 0.33 0.28 0.22 0.18 0.18 0.18 0.18 0.20 0.20 0.23 0.26 0.26 0.29 0.30 0.32 0.33 0.32 0.33 0.34 0.35 0.35
0.32 0.25 0.21 0.19 0.18 0.18 0.18 0.19 0.19 0.22 0.24 0.26 0.30 0.30 0.32 0.34 0.33 0.33 0.32 0.32 0.33 0.34

GFSNIL_prec_pwat_003.txt.gz
Precipitable_Water
0.70 0.69 0.67 0.66 0.62 0.58 0.56 0.55 0.56 0.56 0.57 0.55 0.54 0.55 0.56 0.55 0.44 0.41 0.40 0.39 0.37 0.35
0.61 0.60 0.62 0.60 0.58 0.56 0.55 0.54 0.55 0.55 0.54 0.53 0.55 0.58 0.48 0.43 0.39 0.38 0.36 0.35 0.36 0.34
0.54 0.54 0.56 0.57 0.55 0.54 0.56 0.56 0.58 0.59 0.59 0.59 0.51 0.46 0.41 0.39 0.37 0.35 0.34 0.33 0.32 0.32
0.50 0.51 0.51 0.51 0.52 0.55 0.58 0.55 0.53 0.53 0.50 0.47 0.42 0.41 0.38 0.35 0.33 0.31 0.29 0.28 0.27 0.27
0.47 0.46 0.45 0.47 0.49 0.49 0.48 0.47 0.48 0.46 0.43 0.41 0.40 0.39 0.35 0.31 0.28 0.25 0.24 0.24 0.25 0.24
0.42 0.43 0.44 0.44 0.44 0.44 0.45 0.45 0.42 0.40 0.39 0.37 0.33 0.29 0.25 0.22 0.22 0.21 0.21 0.22 0.22 0.22
0.43 0.44 0.44 0.44 0.44 0.45 0.43 0.40 0.38 0.37 0.33 0.28 0.25 0.22 0.22 0.22 0.22 0.22 0.23 0.25 0.26 0.25
0.47 0.47 0.47 0.46 0.45 0.45 0.41 0.39 0.38 0.33 0.27 0.23 0.21 0.21 0.22 0.24 0.24 0.24 0.23 0.24 0.25 0.25
0.53 0.53 0.51 0.50 0.46 0.42 0.39 0.38 0.31 0.25 0.20 0.19 0.20 0.23 0.25 0.25 0.24 0.24 0.24 0.23 0.25 0.27
0.56 0.54 0.49 0.46 0.40 0.37 0.35 0.29 0.21 0.18 0.18 0.19 0.22 0.24 0.24 0.24 0.24 0.24 0.26 0.27 0.27 0.27
0.49 0.47 0.40 0.38 0.36 0.34 0.25 0.19 0.17 0.17 0.19 0.21 0.22 0.23 0.23 0.25 0.27 0.28 0.29 0.29 0.30 0.30
0.38 0.36 0.35 0.33 0.30 0.21 0.18 0.16 0.17 0.19 0.20 0.20 0.21 0.23 0.25 0.28 0.30 0.30 0.30 0.32 0.32 0.32
0.35 0.34 0.31 0.23 0.20 0.18 0.18 0.17 0.18 0.19 0.22 0.22 0.22 0.24 0.27 0.30 0.31 0.31 0.31 0.32 0.32 0.33
0.33 0.26 0.22 0.20 0.19 0.18 0.18 0.18 0.19 0.20 0.20 0.21 0.24 0.26 0.30 0.32 0.32 0.31 0.30 0.31 0.31 0.33

GFSNIL_prec_pwat_006.txt.gz
Precipitable_Water
0.59 0.58 0.57 0.58 0.57 0.56 0.59 0.59 0.60 0.59 0.59 0.62 0.65 0.64 0.66 0.64 0.65 0.61 0.48 0.42 0.41 0.40
0.55 0.53 0.52 0.52 0.52 0.51 0.52 0.54 0.56 0.61 0.69 0.69 0.70 0.67 0.61 0.52 0.48 0.46 0.42 0.39 0.37 0.36
0.52 0.50 0.49 0.46 0.46 0.47 0.50 0.55 0.62 0.67 0.68 0.64 0.56 0.51 0.48 0.45 0.43 0.39 0.38 0.36 0.35 0.34
0.48 0.46 0.45 0.44 0.46 0.48 0.51 0.56 0.59 0.53 0.49 0.48 0.45 0.43 0.41 0.40 0.38 0.35 0.34 0.32 0.30 0.27
0.45 0.44 0.43 0.45 0.47 0.48 0.47 0.47 0.45 0.44 0.42 0.38 0.37 0.36 0.34 0.32 0.29 0.25 0.22 0.21 0.21 0.21
0.42 0.41 0.41 0.43 0.45 0.45 0.42 0.41 0.41 0.39 0.36 0.35 0.34 0.30 0.27 0.24 0.22 0.22 0.21 0.21 0.21 0.21
0.38 0.39 0.41 0.43 0.43 0.44 0.43 0.43 0.40 0.37 0.36 0.33 0.29 0.25 0.23 0.21 0.21 0.21 0.22 0.23 0.23 0.24
0.41 0.44 0.45 0.45 0.45 0.50 0.46 0.40 0.39 0.37 0.32 0.28 0.25 0.21 0.21 0.22 0.22 0.22 0.22 0.23 0.23 0.23
0.49 0.51 0.51 0.53 0.49 0.46 0.43 0.40 0.37 0.31 0.25 0.20 0.19 0.20 0.23 0.24 0.22 0.22 0.21 0.20 0.22 0.24
0.54 0.52 0.46 0.45 0.44 0.41 0.37 0.34 0.29 0.22 0.19 0.18 0.20 0.21 0.22 0.23 0.21 0.20 0.21 0.24 0.26 0.27
0.49 0.46 0.41 0.36 0.34 0.34 0.32 0.25 0.19 0.18 0.18 0.19 0.20 0.22 0.22 0.21 0.21 0.23 0.26 0.29 0.30 0.30
0.39 0.39 0.36 0.34 0.29 0.25 0.21 0.18 0.18 0.19 0.19 0.20 0.19 0.21 0.21 0.22 0.23 0.26 0.29 0.31 0.32 0.32
0.36 0.32 0.28 0.26 0.22 0.20 0.19 0.19 0.19 0.19 0.20 0.19 0.18 0.18 0.21 0.24 0.28 0.29 0.29 0.31 0.31 0.32
0.30 0.26 0.23 0.21 0.21 0.20 0.19 0.19 0.19 0.18 0.18 0.18 0.18 0.20 0.24 0.29 0.31 0.30 0.30 0.30 0.31 0.33

GFSNIL_prec_pwat_009.txt.gz
Precipitable_Water
0.57 0.54 0.52 0.51 0.49 0.47 0.46 0.46 0.50 0.53 0.59 0.63 0.66 0.70 0.66 0.66 0.67 0.66 0.62 0.58 0.54 0.49
0.52 0.47 0.45 0.45 0.45 0.44 0.45 0.47 0.52 0.55 0.58 0.61 0.65 0.65 0.65 0.64 0.61 0.57 0.54 0.49 0.46 0.44
0.46 0.42 0.42 0.41 0.42 0.43 0.46 0.49 0.51 0.52 0.54 0.57 0.58 0.55 0.51 0.47 0.45 0.44 0.44 0.42 0.40 0.38
0.42 0.38 0.39 0.40 0.41 0.43 0.46 0.47 0.47 0.49 0.49 0.46 0.44 0.42 0.40 0.38 0.37 0.35 0.32 0.29 0.26 0.25
0.41 0.37 0.35 0.36 0.38 0.42 0.43 0.47 0.43 0.40 0.39 0.38 0.38 0.37 0.35 0.32 0.30 0.27 0.24 0.23 0.23 0.22
0.38 0.35 0.36 0.38 0.40 0.42 0.44 0.43 0.43 0.43 0.40 0.39 0.38 0.36 0.33 0.30 0.26 0.24 0.23 0.22 0.21 0.21
0.38 0.37 0.39 0.40 0.42 0.46 0.47 0.47 0.44 0.41 0.39 0.38 0.34 0.29 0.26 0.25 0.22 0.21 0.21 0.21 0.21 0.21
0.41 0.40 0.41 0.46 0.49 0.49 0.48 0.45 0.43 0.40 0.37 0.34 0.31 0.26 0.23 0.22 0.21 0.21 0.20 0.20 0.20 0.20
0.50 0.50 0.51 0.50 0.48 0.47 0.48 0.47 0.41 0.36 0.32 0.29 0.23 0.23 0.23 0.22 0.21 0.20 0.18 0.17 0.18 0.20
0.51 0.49 0.49 0.48 0.45 0.38 0.36 0.35 0.31 0.29 0.25 0.20 0.20 0.21 0.22 0.21 0.20 0.18 0.18 0.19 0.20 0.22
0.41 0.39 0.39 0.38 0.35 0.32 0.29 0.27 0.23 0.21 0.21 0.21 0.21 0.21 0.20 0.19 0.18 0.18 0.20 0.22 0.26 0.28
0.39 0.35 0.32 0.29 0.28 0.26 0.24 0.22 0.21 0.21 0.20 0.19 0.18 0.19 0.18 0.18 0.18 0.19 0.22 0.28 0.30 0.31
0.33 0.30 0.26 0.24 0.22 0.22 0.21 0.20 0.21 0.20 0.20 0.19 0.18 0.18 0.18 0.19 0.20 0.22 0.27 0.30 0.31 0.32
0.28 0.24 0.22 0.21 0.21 0.21 0.20 0.20 0.19 0.19 0.18 0.18 0.18 0.18 0.19 0.21 0.23 0.27 0.29 0.29 0.30 0.33

GFSNIL_prec_pwat_012.txt.gz
Precipitable_Water
0.57 0.54 0.49 0.42 0.39 0.39 0.40 0.39 0.43 0.45 0.48 0.50 0.53 0.57 0.59 0.60 0.61 0.61 0.62 0.59 0.59 0.58
0.57 0.49 0.42 0.40 0.39 0.40 0.41 0.45 0.47 0.50 0.52 0.54 0.55 0.57 0.59 0.58 0.57 0.57 0.55 0.53 0.53 0.51
0.50 0.47 0.44 0.41 0.38 0.41 0.45 0.47 0.48 0.50 0.49 0.48 0.49 0.52 0.51 0.48 0.47 0.45 0.45 0.44 0.41 0.38
0.50 0.45 0.42 0.37 0.38 0.40 0.43 0.45 0.43 0.45 0.47 0.44 0.42 0.40 0.40 0.39 0.39 0.36 0.33 0.30 0.28 0.25
0.47 0.43 0.40 0.37 0.37 0.40 0.40 0.40 0.43 0.44 0.43 0.42 0.41 0.40 0.38 0.36 0.34 0.31 0.29 0.27 0.24 0.22
0.43 0.40 0.38 0.37 0.38 0.41 0.43 0.45 0.47 0.48 0.44 0.41 0.40 0.39 0.37 0.34 0.31 0.28 0.25 0.23 0.22 0.22
0.41 0.38 0.38 0.41 0.43 0.45 0.47 0.47 0.49 0.48 0.45 0.41 0.38 0.35 0.32 0.31 0.27 0.23 0.22 0.22 0.22 0.21
0.46 0.45 0.45 0.45 0.45 0.47 0.48 0.49 0.49 0.47 0.42 0.39 0.36 0.33 0.30 0.25 0.23 0.22 0.21 0.20 0.20 0.19
0.49 0.49 0.48 0.47 0.45 0.45 0.45 0.44 0.40 0.33 0.31 0.30 0.27 0.25 0.25 0.25 0.24 0.22 0.20 0.19 0.18 0.18
0.42 0.40 0.40 0.40 0.39 0.36 0.33 0.32 0.29 0.27 0.25 0.23 0.24 0.24 0.23 0.22 0.21 0.20 0.19 0.18 0.18 0.18
0.40 0.36 0.35 0.32 0.30 0.28 0.26 0.23 0.23 0.22 0.23 0.22 0.22 0.22 0.21 0.20 0.19 0.19 0.19 0.19 0.20 0.23
0.32 0.29 0.28 0.24 0.22 0.22 0.21 0.21 0.21 0.22 0.21 0.21 0.20 0.19 0.19 0.20 0.19 0.18 0.18 0.21 0.25 0.28
0.31 0.27 0.22 0.21 0.21 0.21 0.21 0.21 0.21 0.20 0.21 0.20 0.19 0.19 0.20 0.20 0.19 0.18 0.20 0.24 0.29 0.31
0.26 0.24 0.22 0.22 0.21 0.20 0.19 0.19 0.19 0.19 0.20 0.20 0.20 0.20 0.20 0.21 0.20 0.20 0.22 0.27 0.29 0.32

GFSNIL_prec_pwat_015.txt.gz
Precipitable_Water
0.63 0.59 0.54 0.49 0.48 0.44 0.44 0.45 0.48 0.49 0.50 0.51 0.52 0.53 0.54 0.53 0.54 0.55 0.54 0.53 0.54 0.53
0.56 0.54 0.47 0.48 0.47 0.43 0.42 0.45 0.48 0.50 0.51 0.53 0.53 0.54 0.53 0.50 0.47 0.48 0.49 0.50 0.51 0.49
0.56 0.53 0.53 0.46 0.40 0.40 0.43 0.49 0.50 0.52 0.48 0.48 0.50 0.49 0.47 0.45 0.45 0.43 0.43 0.42 0.40 0.39
0.56 0.51 0.43 0.41 0.41 0.41 0.46 0.48 0.44 0.43 0.44 0.47 0.49 0.48 0.45 0.43 0.42 0.40 0.38 0.37 0.35 0.32
0.50 0.45 0.39 0.38 0.40 0.44 0.43 0.43 0.44 0.46 0.48 0.49 0.46 0.45 0.42 0.40 0.39 0.36 0.33 0.32 0.29 0.25
0.44 0.41 0.40 0.42 0.45 0.45 0.46 0.47 0.47 0.48 0.48 0.47 0.45 0.40 0.38 0.36 0.34 0.34 0.32 0.26 0.23 0.23
0.43 0.43 0.44 0.47 0.46 0.47 0.47 0.47 0.48 0.48 0.47 0.44 0.41 0.37 0.35 0.33 0.31 0.28 0.25 0.25 0.24 0.23
0.48 0.51 0.51 0.48 0.46 0.46 0.45 0.44 0.44 0.42 0.36 0.33 0.32 0.30 0.29 0.27 0.25 0.24 0.23 0.23 0.23 0.22
0.44 0.44 0.40 0.39 0.39 0.39 0.36 0.32 0.30 0.28 0.26 0.25 0.24 0.25 0.24 0.24 0.23 0.23 0.22 0.21 0.21 0.20
0.37 0.35 0.34 0.32 0.30 0.26 0.24 0.23 0.22 0.22 0.22 0.22 0.23 0.23 0.23 0.23 0.22 0.21 0.20 0.19 0.19 0.19
0.34 0.32 0.31 0.28 0.24 0.22 0.22 0.21 0.21 0.21 0.22 0.20 0.20 0.20 0.20 0.21 0.21 0.21 0.21 0.20 0.20 0.21
0.33 0.30 0.26 0.23 0.22 0.22 0.21 0.20 0.19 0.20 0.19 0.19 0.20 0.20 0.20 0.21 0.21 0.20 0.20 0.21 0.22 0.23
0.30 0.26 0.23 0.23 0.21 0.20 0.19 0.19 0.20 0.19 0.21 0.22 0.21 0.22 0.22 0.22 0.21 0.19 0.20 0.21 0.23 0.26
0.28 0.26 0.23 0.20 0.20 0.19 0.20 0.20 0.20 0.22 0.23 0.24 0.23 0.22 0.21 0.21 0.21 0.21 0.21 0.21 0.23 0.29

GFSNIL_prec_pwat_021.txt.gz
Precipitable_Water
0.73 0.68 0.65 0.61 0.59 0.54 0.51 0.50 0.53 0.56 0.58 0.57 0.59 0.60 0.58 0.55 0.53 0.52 0.50 0.48 0.49 0.49
0.69 0.66 0.61 0.58 0.53 0.48 0.46 0.46 0.48 0.53 0.53 0.54 0.53 0.52 0.52 0.51 0.50 0.51 0.48 0.46 0.46 0.46
0.66 0.62 0.56 0.48 0.46 0.44 0.45 0.48 0.48 0.51 0.51 0.51 0.51 0.52 0.51 0.51 0.51 0.50 0.51 0.52 0.50 0.51
0.55 0.53 0.48 0.45 0.43 0.44 0.44 0.45 0.43 0.45 0.48 0.50 0.49 0.50 0.49 0.49 0.48 0.47 0.46 0.46 0.46 0.45
0.47 0.46 0.44 0.43 0.44 0.45 0.44 0.46 0.48 0.51 0.51 0.52 0.50 0.48 0.46 0.44 0.44 0.43 0.42 0.41 0.41 0.40
0.44 0.45 0.42 0.42 0.44 0.46 0.45 0.44 0.44 0.48 0.49 0.48 0.46 0.40 0.35 0.33 0.32 0.32 0.32 0.32 0.31 0.31
0.41 0.39 0.39 0.42 0.41 0.40 0.39 0.38 0.36 0.36 0.34 0.32 0.30 0.28 0.28 0.27 0.25 0.25 0.25 0.26 0.27 0.27
0.39 0.38 0.38 0.39 0.38 0.36 0.35 0.32 0.31 0.29 0.29 0.28 0.26 0.25 0.23 0.22 0.21 0.20 0.20 0.21 0.22 0.23
0.36 0.37 0.39 0.35 0.34 0.31 0.29 0.28 0.28 0.26 0.24 0.24 0.25 0.26 0.24 0.22 0.20 0.19 0.20 0.20 0.22 0.24
0.35 0.35 0.34 0.32 0.28 0.28 0.28 0.27 0.24 0.24 0.24 0.24 0.25 0.25 0.23 0.24 0.23 0.22 0.23 0.24 0.24 0.24
0.34 0.34 0.33 0.28 0.27 0.29 0.26 0.24 0.24 0.25 0.25 0.25 0.26 0.27 0.26 0.26 0.24 0.23 0.23 0.24 0.25 0.24
0.35 0.34 0.31 0.28 0.29 0.27 0.25 0.25 0.25 0.24 0.26 0.25 0.26 0.28 0.27 0.25 0.23 0.22 0.23 0.23 0.25 0.24
0.35 0.33 0.30 0.30 0.29 0.26 0.26 0.25 0.24 0.26 0.26 0.26 0.26 0.28 0.28 0.26 0.24 0.22 0.22 0.23 0.23 0.24
0.39 0.38 0.32 0.31 0.30 0.25 0.26 0.25 0.28 0.27 0.28 0.28 0.30 0.28 0.27 0.27 0.24 0.22 0.24 0.24 0.24 0.25

GFSNIL_prec_pwat_024.txt.gz
Precipitable_Water
0.74 0.70 0.68 0.64 0.60 0.55 0.48 0.46 0.47 0.54 0.54 0.53 0.53 0.52 0.51 0.52 0.51 0.51 0.50 0.48 0.46 0.45
0.67 0.64 0.60 0.56 0.52 0.45 0.42 0.41 0.45 0.44 0.46 0.48 0.50 0.50 0.54 0.49 0.47 0.48 0.50 0.50 0.50 0.50
0.59 0.56 0.52 0.47 0.41 0.41 0.41 0.40 0.41 0.44 0.45 0.48 0.51 0.51 0.49 0.47 0.48 0.46 0.46 0.49 0.49 0.49
0.48 0.46 0.48 0.45 0.44 0.44 0.43 0.40 0.41 0.45 0.48 0.49 0.50 0.50 0.48 0.45 0.44 0.40 0.39 0.42 0.44 0.44
0.44 0.46 0.44 0.43 0.39 0.39 0.40 0.41 0.42 0.43 0.45 0.45 0.45 0.46 0.45 0.41 0.37 0.34 0.31 0.29 0.30 0.32
0.39 0.42 0.39 0.36 0.37 0.38 0.36 0.36 0.36 0.36 0.34 0.33 0.33 0.32 0.30 0.28 0.27 0.26 0.24 0.22 0.23 0.24
0.40 0.41 0.39 0.36 0.36 0.38 0.37 0.35 0.32 0.31 0.30 0.29 0.27 0.26 0.25 0.26 0.25 0.24 0.23 0.20 0.20 0.21
0.39 0.41 0.40 0.37 0.37 0.37 0.35 0.31 0.30 0.29 0.28 0.26 0.25 0.26 0.26 0.25 0.25 0.24 0.21 0.20 0.21 0.22
0.40 0.42 0.41 0.36 0.34 0.33 0.28 0.29 0.29 0.27 0.25 0.25 0.26 0.27 0.25 0.24 0.24 0.25 0.24 0.22 0.22 0.25
0.43 0.39 0.35 0.33 0.32 0.28 0.28 0.29 0.27 0.25 0.25 0.26 0.27 0.27 0.27 0.27 0.27 0.26 0.24 0.23 0.23 0.24
0.42 0.41 0.35 0.33 0.32 0.28 0.30 0.29 0.27 0.26 0.26 0.26 0.26 0.28 0.28 0.28 0.27 0.25 0.24 0.24 0.23 0.22
0.45 0.41 0.38 0.33 0.33 0.31 0.30 0.29 0.29 0.27 0.28 0.27 0.27 0.27 0.29 0.30 0.27 0.25 0.24 0.23 0.24 0.25
0.40 0.39 0.38 0.37 0.38 0.33 0.32 0.31 0.28 0.27 0.27 0.28 0.26 0.29 0.29 0.28 0.28 0.26 0.25 0.24 0.25 0.26
0.40 0.41 0.44 0.43 0.37 0.33 0.33 0.28 0.27 0.25 0.27 0.26 0.27 0.27 0.27 0.29 0.28 0.25 0.23 0.23 0.24 0.26

GFSNIL_prec_pwat_027.txt.gz
Precipitable_Water
0.67 0.65 0.63 0.60 0.57 0.51 0.42 0.38 0.41 0.42 0.43 0.42 0.43 0.45 0.47 0.47 0.50 0.51 0.46 0.45 0.46 0.46
0.63 0.60 0.57 0.54 0.50 0.41 0.40 0.41 0.42 0.42 0.41 0.44 0.46 0.47 0.45 0.48 0.47 0.48 0.45 0.45 0.46 0.47
0.57 0.56 0.52 0.45 0.41 0.43 0.44 0.43 0.40 0.40 0.41 0.44 0.46 0.47 0.46 0.44 0.43 0.42 0.41 0.40 0.39 0.39
0.53 0.47 0.43 0.42 0.43 0.42 0.36 0.36 0.38 0.38 0.39 0.39 0.38 0.40 0.41 0.41 0.39 0.38 0.37 0.36 0.34 0.29
0.44 0.40 0.38 0.37 0.37 0.37 0.36 0.38 0.36 0.35 0.32 0.34 0.34 0.33 0.33 0.31 0.30 0.26 0.25 0.26 0.26 0.23
0.39 0.38 0.36 0.35 0.37 0.39 0.38 0.33 0.31 0.30 0.29 0.29 0.29 0.28 0.27 0.26 0.25 0.26 0.27 0.26 0.25 0.23
0.41 0.41 0.41 0.41 0.43 0.43 0.37 0.32 0.29 0.27 0.28 0.27 0.25 0.25 0.25 0.25 0.25 0.25 0.25 0.25 0.24 0.23
0.42 0.42 0.44 0.45 0.45 0.45 0.38 0.32 0.29 0.27 0.28 0.27 0.25 0.24 0.24 0.24 0.25 0.25 0.25 0.25 0.25 0.24
0.43 0.45 0.47 0.49 0.45 0.45 0.37 0.31 0.30 0.28 0.27 0.27 0.26 0.26 0.27 0.27 0.25 0.25 0.24 0.23 0.22 0.23
0.42 0.43 0.46 0.48 0.49 0.42 0.36 0.32 0.31 0.28 0.30 0.29 0.28 0.29 0.29 0.27 0.26 0.25 0.26 0.24 0.23 0.21
0.38 0.41 0.46 0.47 0.43 0.41 0.35 0.33 0.30 0.31 0.31 0.30 0.29 0.30 0.28 0.28 0.28 0.27 0.27 0.27 0.26 0.24
0.33 0.34 0.36 0.39 0.38 0.41 0.39 0.33 0.33 0.33 0.30 0.28 0.27 0.27 0.27 0.26 0.26 0.27 0.26 0.26 0.25 0.24
0.33 0.33 0.34 0.37 0.38 0.40 0.36 0.33 0.34 0.28 0.27 0.26 0.24 0.26 0.26 0.26 0.26 0.24 0.24 0.24 0.24 0.25
0.34 0.35 0.38 0.41 0.41 0.36 0.35 0.34 0.27 0.24 0.25 0.24 0.25 0.24 0.24 0.26 0.24 0.23 0.22 0.22 0.24 0.25

GFSNIL_prec_pwat_030.txt.gz
Precipitable_Water
0.64 0.62 0.61 0.59 0.56 0.52 0.44 0.41 0.42 0.43 0.43 0.41 0.41 0.42 0.43 0.43 0.43 0.44 0.42 0.42 0.43 0.44
0.61 0.60 0.59 0.52 0.46 0.42 0.41 0.40 0.39 0.37 0.37 0.37 0.38 0.40 0.41 0.39 0.38 0.39 0.38 0.38 0.38 0.38
0.58 0.55 0.51 0.47 0.40 0.37 0.37 0.37 0.34 0.35 0.35 0.35 0.35 0.35 0.34 0.33 0.34 0.33 0.34 0.36 0.37 0.35
0.49 0.45 0.42 0.42 0.41 0.38 0.39 0.39 0.35 0.36 0.33 0.31 0.32 0.33 0.32 0.31 0.31 0.30 0.28 0.26 0.26 0.25
0.44 0.44 0.40 0.39 0.40 0.40 0.41 0.45 0.43 0.39 0.33 0.31 0.30 0.29 0.28 0.27 0.26 0.24 0.24 0.25 0.25 0.25
0.41 0.43 0.43 0.42 0.42 0.45 0.45 0.50 0.48 0.40 0.34 0.30 0.30 0.29 0.26 0.25 0.23 0.23 0.24 0.24 0.24 0.24
0.41 0.43 0.46 0.49 0.48 0.46 0.49 0.49 0.45 0.38 0.35 0.32 0.31 0.28 0.25 0.25 0.24 0.24 0.25 0.25 0.24 0.23
0.42 0.42 0.39 0.40 0.43 0.46 0.50 0.47 0.47 0.36 0.33 0.32 0.30 0.29 0.27 0.26 0.25 0.25 0.24 0.24 0.24 0.23
0.37 0.33 0.32 0.32 0.34 0.36 0.43 0.48 0.38 0.34 0.33 0.31 0.31 0.31 0.30 0.27 0.26 0.24 0.24 0.23 0.24 0.25
0.29 0.30 0.33 0.32 0.32 0.32 0.37 0.38 0.34 0.36 0.35 0.32 0.33 0.33 0.29 0.27 0.26 0.25 0.24 0.24 0.25 0.25
0.31 0.32 0.32 0.30 0.33 0.37 0.37 0.37 0.39 0.36 0.34 0.33 0.30 0.27 0.26 0.26 0.26 0.24 0.24 0.25 0.24 0.23
0.32 0.32 0.31 0.29 0.32 0.36 0.39 0.40 0.36 0.36 0.32 0.26 0.24 0.25 0.25 0.25 0.22 0.21 0.22 0.23 0.23 0.23
0.34 0.31 0.31 0.34 0.36 0.39 0.38 0.36 0.36 0.32 0.26 0.24 0.22 0.23 0.23 0.22 0.20 0.19 0.21 0.23 0.24 0.26
0.30 0.31 0.34 0.36 0.39 0.38 0.36 0.34 0.29 0.25 0.24 0.23 0.22 0.21 0.21 0.19 0.18 0.21 0.22 0.22 0.24 0.26

GFSNIL_prec_pwat_033.txt.gz
Precipitable_Water
0.64 0.61 0.58 0.53 0.47 0.41 0.39 0.39 0.42 0.41 0.40 0.38 0.37 0.37 0.37 0.36 0.34 0.35 0.33 0.33 0.34 0.33
0.59 0.54 0.49 0.48 0.44 0.40 0.41 0.41 0.41 0.41 0.41 0.41 0.40 0.39 0.38 0.36 0.34 0.35 0.33 0.32 0.32 0.33
0.48 0.46 0.44 0.44 0.43 0.44 0.45 0.43 0.42 0.44 0.44 0.43 0.43 0.41 0.40 0.37 0.35 0.35 0.33 0.32 0.29 0.26
0.42 0.42 0.42 0.44 0.45 0.45 0.47 0.47 0.45 0.45 0.45 0.43 0.43 0.40 0.37 0.33 0.32 0.29 0.26 0.26 0.25 0.24
0.43 0.44 0.44 0.45 0.46 0.46 0.43 0.46 0.46 0.44 0.45 0.39 0.39 0.37 0.32 0.30 0.26 0.25 0.24 0.24 0.23 0.22
0.39 0.40 0.41 0.41 0.37 0.35 0.34 0.35 0.39 0.39 0.43 0.43 0.37 0.34 0.32 0.29 0.27 0.27 0.26 0.26 0.24 0.23
0.38 0.37 0.33 0.31 0.30 0.31 0.33 0.34 0.36 0.41 0.42 0.42 0.36 0.34 0.31 0.29 0.28 0.27 0.27 0.26 0.25 0.23
0.32 0.28 0.28 0.30 0.33 0.35 0.34 0.34 0.38 0.41 0.40 0.35 0.35 0.35 0.32 0.31 0.30 0.26 0.24 0.24 0.24 0.23
0.27 0.29 0.31 0.31 0.31 0.32 0.34 0.38 0.41 0.38 0.33 0.34 0.35 0.34 0.34 0.31 0.25 0.24 0.24 0.23 0.23 0.23
0.31 0.29 0.29 0.31 0.29 0.28 0.32 0.37 0.37 0.37 0.38 0.35 0.34 0.33 0.29 0.27 0.25 0.25 0.24 0.22 0.21 0.21
0.29 0.28 0.30 0.29 0.30 0.31 0.32 0.35 0.37 0.37 0.36 0.33 0.31 0.27 0.26 0.24 0.23 0.21 0.19 0.19 0.20 0.22
0.29 0.28 0.28 0.28 0.29 0.33 0.35 0.36 0.35 0.34 0.32 0.28 0.25 0.24 0.23 0.22 0.20 0.17 0.17 0.20 0.23 0.24
0.30 0.29 0.28 0.30 0.31 0.35 0.37 0.35 0.34 0.30 0.27 0.24 0.22 0.22 0.21 0.20 0.18 0.17 0.18 0.20 0.23 0.26
0.30 0.29 0.29 0.31 0.34 0.35 0.36 0.32 0.28 0.24 0.24 0.22 0.22 0.21 0.20 0.19 0.18 0.18 0.18 0.21 0.23 0.26

GFSNIL_prec_pwat_036.txt.gz
Precipitable_Water
0.64 0.57 0.53 0.48 0.44 0.41 0.40 0.41 0.43 0.43 0.44 0.44 0.44 0.42 0.41 0.41 0.39 0.37 0.36 0.33 0.33 0.33
0.55 0.52 0.48 0.45 0.43 0.42 0.43 0.45 0.46 0.45 0.44 0.46 0.45 0.45 0.45 0.44 0.40 0.39 0.36 0.35 0.35 0.34
0.49 0.46 0.46 0.45 0.44 0.44 0.45 0.43 0.42 0.41 0.41 0.42 0.45 0.47 0.45 0.43 0.40 0.36 0.35 0.34 0.31 0.28
0.45 0.45 0.46 0.45 0.45 0.45 0.42 0.39 0.37 0.37 0.38 0.37 0.40 0.38 0.39 0.39 0.35 0.32 0.30 0.27 0.26 0.26
0.45 0.43 0.42 0.39 0.36 0.34 0.32 0.32 0.32 0.35 0.37 0.36 0.36 0.39 0.39 0.34 0.33 0.30 0.28 0.28 0.27 0.24
0.39 0.35 0.32 0.29 0.29 0.30 0.30 0.31 0.33 0.37 0.37 0.38 0.39 0.41 0.36 0.34 0.33 0.31 0.30 0.28 0.25 0.24
0.31 0.28 0.28 0.29 0.29 0.29 0.31 0.32 0.35 0.38 0.39 0.39 0.39 0.36 0.34 0.33 0.31 0.32 0.31 0.27 0.25 0.24
0.30 0.30 0.30 0.29 0.28 0.30 0.29 0.31 0.36 0.39 0.39 0.37 0.33 0.33 0.33 0.32 0.32 0.29 0.25 0.24 0.24 0.24
0.31 0.30 0.29 0.30 0.28 0.29 0.30 0.32 0.36 0.34 0.33 0.34 0.35 0.33 0.33 0.33 0.26 0.24 0.23 0.21 0.20 0.20
0.30 0.28 0.29 0.30 0.29 0.30 0.28 0.31 0.33 0.34 0.36 0.34 0.33 0.33 0.31 0.26 0.23 0.20 0.19 0.17 0.17 0.17
0.28 0.28 0.29 0.28 0.29 0.30 0.30 0.32 0.34 0.35 0.34 0.31 0.29 0.28 0.25 0.23 0.21 0.18 0.17 0.17 0.18 0.19
0.28 0.27 0.27 0.27 0.29 0.31 0.32 0.33 0.33 0.33 0.31 0.26 0.23 0.23 0.22 0.21 0.19 0.17 0.17 0.18 0.19 0.21
0.28 0.28 0.27 0.29 0.30 0.31 0.32 0.34 0.34 0.30 0.27 0.23 0.22 0.22 0.21 0.20 0.18 0.16 0.17 0.19 0.19 0.22
0.29 0.29 0.30 0.30 0.32 0.31 0.32 0.33 0.30 0.26 0.24 0.22 0.21 0.21 0.21 0.20 0.19 0.17 0.18 0.18 0.18 0.22

GFSNIL_prec_pwat_039.txt.gz
Precipitable_Water
0.66 0.58 0.54 0.50 0.48 0.47 0.45 0.44 0.46 0.45 0.43 0.44 0.43 0.42 0.41 0.42 0.43 0.42 0.40 0.40 0.38 0.36
0.63 0.56 0.53 0.53 0.50 0.48 0.47 0.47 0.46 0.44 0.39 0.37 0.38 0.40 0.42 0.43 0.40 0.41 0.40 0.38 0.37 0.35
0.55 0.53 0.51 0.50 0.48 0.45 0.42 0.36 0.34 0.32 0.32 0.34 0.39 0.42 0.43 0.39 0.41 0.40 0.38 0.34 0.31 0.29
0.52 0.49 0.48 0.43 0.37 0.33 0.31 0.30 0.29 0.30 0.32 0.35 0.39 0.42 0.38 0.37 0.38 0.36 0.33 0.31 0.30 0.30
0.46 0.43 0.37 0.31 0.30 0.31 0.30 0.31 0.32 0.33 0.34 0.38 0.42 0.42 0.37 0.41 0.37 0.33 0.32 0.31 0.30 0.30
0.39 0.33 0.30 0.31 0.32 0.32 0.30 0.30 0.30 0.33 0.35 0.37 0.38 0.39 0.39 0.35 0.32 0.32 0.30 0.31 0.29 0.25
0.32 0.32 0.33 0.34 0.32 0.31 0.31 0.29 0.30 0.34 0.37 0.37 0.37 0.36 0.34 0.32 0.31 0.31 0.30 0.28 0.25 0.24
0.35 0.35 0.34 0.32 0.31 0.30 0.30 0.31 0.31 0.33 0.37 0.35 0.32 0.33 0.33 0.32 0.31 0.30 0.24 0.23 0.22 0.21
0.35 0.34 0.31 0.31 0.30 0.30 0.31 0.29 0.31 0.32 0.32 0.32 0.33 0.35 0.34 0.31 0.26 0.22 0.20 0.18 0.17 0.17
0.32 0.30 0.30 0.30 0.29 0.29 0.30 0.31 0.30 0.33 0.35 0.34 0.34 0.33 0.29 0.24 0.22 0.20 0.18 0.16 0.16 0.17
0.30 0.29 0.29 0.28 0.28 0.30 0.30 0.31 0.31 0.32 0.33 0.32 0.31 0.26 0.23 0.21 0.20 0.19 0.17 0.17 0.18 0.18
0.29 0.28 0.27 0.27 0.28 0.29 0.29 0.29 0.31 0.33 0.31 0.29 0.25 0.23 0.21 0.21 0.20 0.18 0.17 0.18 0.19 0.19
0.28 0.27 0.26 0.27 0.28 0.29 0.30 0.30 0.32 0.31 0.30 0.27 0.23 0.22 0.21 0.21 0.20 0.18 0.17 0.18 0.19 0.20
0.28 0.27 0.27 0.28 0.29 0.30 0.30 0.30 0.30 0.27 0.26 0.24 0.22 0.21 0.21 0.21 0.20 0.18 0.17 0.17 0.17 0.18

GFSNIL_prec_pwat_042.txt.gz
Precipitable_Water
0.71 0.70 0.65 0.57 0.54 0.52 0.54 0.54 0.53 0.52 0.49 0.44 0.42 0.43 0.43 0.45 0.46 0.48 0.44 0.40 0.41 0.40
0.71 0.67 0.58 0.56 0.56 0.55 0.54 0.50 0.43 0.39 0.36 0.36 0.38 0.40 0.42 0.45 0.45 0.44 0.39 0.42 0.40 0.36
0.69 0.60 0.55 0.54 0.52 0.46 0.39 0.35 0.34 0.33 0.33 0.34 0.35 0.38 0.40 0.40 0.39 0.37 0.38 0.38 0.35 0.33
0.58 0.52 0.51 0.45 0.39 0.35 0.35 0.34 0.33 0.33 0.33 0.34 0.36 0.39 0.37 0.39 0.37 0.36 0.38 0.36 0.34 0.33
0.49 0.46 0.41 0.36 0.35 0.36 0.35 0.34 0.33 0.33 0.34 0.36 0.37 0.38 0.37 0.36 0.38 0.35 0.32 0.32 0.32 0.31
0.43 0.38 0.35 0.36 0.36 0.37 0.35 0.33 0.34 0.33 0.34 0.35 0.37 0.36 0.36 0.37 0.35 0.33 0.32 0.31 0.31 0.28
0.37 0.36 0.37 0.37 0.37 0.35 0.35 0.33 0.32 0.32 0.34 0.36 0.37 0.36 0.36 0.33 0.33 0.33 0.32 0.31 0.27 0.25
0.37 0.40 0.39 0.37 0.36 0.35 0.33 0.33 0.32 0.32 0.33 0.33 0.33 0.31 0.34 0.35 0.35 0.31 0.26 0.23 0.22 0.20
0.40 0.39 0.36 0.35 0.34 0.32 0.33 0.33 0.33 0.31 0.31 0.32 0.33 0.34 0.34 0.32 0.27 0.23 0.21 0.19 0.18 0.18
0.37 0.35 0.34 0.33 0.31 0.31 0.32 0.32 0.31 0.31 0.32 0.32 0.34 0.32 0.31 0.24 0.22 0.21 0.20 0.19 0.17 0.17
0.35 0.33 0.33 0.31 0.30 0.31 0.32 0.30 0.31 0.30 0.31 0.32 0.32 0.29 0.26 0.22 0.22 0.21 0.20 0.19 0.19 0.18
0.35 0.33 0.31 0.30 0.29 0.30 0.30 0.30 0.30 0.31 0.31 0.31 0.30 0.27 0.24 0.21 0.21 0.21 0.20 0.20 0.19 0.19
0.34 0.31 0.29 0.29 0.28 0.29 0.31 0.30 0.30 0.30 0.32 0.30 0.28 0.26 0.22 0.21 0.21 0.20 0.20 0.19 0.19 0.20
0.32 0.30 0.30 0.29 0.29 0.29 0.30 0.30 0.29 0.29 0.30 0.29 0.27 0.25 0.22 0.21 0.20 0.20 0.19 0.18 0.18 0.19

GFSNIL_prec_pwat_045.txt.gz
Precipitable_Water
0.75 0.70 0.69 0.68 0.69 0.58 0.55 0.54 0.54 0.54 0.49 0.42 0.40 0.38 0.39 0.41 0.43 0.45 0.50 0.49 0.47 0.42
0.75 0.71 0.71 0.67 0.59 0.57 0.56 0.50 0.44 0.41 0.39 0.38 0.37 0.37 0.38 0.39 0.40 0.43 0.46 0.43 0.38 0.40
0.73 0.73 0.69 0.60 0.56 0.49 0.44 0.42 0.39 0.38 0.36 0.36 0.36 0.37 0.38 0.38 0.40 0.40 0.41 0.37 0.38 0.39
0.72 0.68 0.59 0.51 0.44 0.41 0.43 0.41 0.38 0.36 0.35 0.34 0.35 0.37 0.39 0.37 0.36 0.38 0.37 0.37 0.37 0.34
0.63 0.56 0.49 0.44 0.41 0.43 0.42 0.41 0.38 0.36 0.35 0.36 0.36 0.38 0.37 0.35 0.35 0.37 0.37 0.34 0.35 0.34
0.56 0.49 0.44 0.41 0.43 0.43 0.41 0.39 0.38 0.36 0.36 0.35 0.37 0.37 0.37 0.36 0.36 0.37 0.36 0.35 0.34 0.32
0.47 0.45 0.42 0.42 0.43 0.42 0.41 0.39 0.38 0.38 0.36 0.36 0.36 0.35 0.36 0.37 0.36 0.35 0.36 0.36 0.32 0.25
0.46 0.45 0.44 0.45 0.44 0.42 0.41 0.39 0.39 0.37 0.36 0.34 0.32 0.32 0.33 0.34 0.35 0.34 0.32 0.26 0.23 0.22
0.42 0.44 0.46 0.44 0.42 0.41 0.39 0.38 0.38 0.36 0.34 0.31 0.33 0.33 0.32 0.31 0.30 0.27 0.23 0.22 0.21 0.20
0.45 0.43 0.41 0.41 0.40 0.37 0.36 0.36 0.35 0.33 0.32 0.32 0.35 0.32 0.31 0.28 0.25 0.22 0.23 0.22 0.20 0.20
0.43 0.43 0.41 0.37 0.35 0.35 0.35 0.35 0.32 0.32 0.32 0.32 0.33 0.32 0.29 0.27 0.24 0.23 0.23 0.22 0.21 0.20
0.43 0.39 0.36 0.33 0.33 0.35 0.33 0.33 0.31 0.31 0.32 0.32 0.33 0.32 0.28 0.26 0.22 0.23 0.23 0.22 0.22 0.21
0.39 0.35 0.33 0.33 0.33 0.33 0.33 0.31 0.32 0.32 0.32 0.33 0.33 0.32 0.28 0.25 0.22 0.22 0.21 0.22 0.22 0.21
0.35 0.33 0.33 0.33 0.33 0.33 0.32 0.30 0.30 0.31 0.31 0.32 0.33 0.32 0.28 0.25 0.22 0.22 0.20 0.20 0.20 0.20

GFSNIL_prec_pwat_051.txt.gz
Precipitable_Water
0.86 0.82 0.80 0.78 0.76 0.72 0.71 0.72 0.76 0.66 0.56 0.47 0.41 0.41 0.42 0.41 0.40 0.39 0.41 0.41 0.41 0.40
0.85 0.83 0.80 0.78 0.75 0.72 0.70 0.72 0.69 0.57 0.48 0.42 0.40 0.40 0.41 0.40 0.39 0.41 0.41 0.40 0.40 0.40
0.84 0.83 0.80 0.78 0.73 0.73 0.74 0.65 0.60 0.51 0.41 0.41 0.44 0.43 0.42 0.41 0.43 0.41 0.41 0.39 0.39 0.37
0.85 0.84 0.84 0.75 0.78 0.68 0.70 0.58 0.48 0.46 0.45 0.44 0.44 0.43 0.42 0.42 0.41 0.40 0.38 0.38 0.34 0.37
0.84 0.82 0.79 0.76 0.68 0.64 0.58 0.51 0.51 0.51 0.47 0.46 0.42 0.41 0.38 0.37 0.37 0.35 0.34 0.35 0.36 0.35
0.78 0.76 0.73 0.70 0.60 0.60 0.53 0.51 0.51 0.50 0.46 0.43 0.43 0.39 0.38 0.38 0.36 0.36 0.36 0.35 0.34 0.33
0.72 0.70 0.63 0.59 0.58 0.56 0.52 0.51 0.52 0.48 0.44 0.42 0.41 0.41 0.40 0.38 0.36 0.35 0.34 0.34 0.33 0.31
0.63 0.59 0.60 0.60 0.59 0.53 0.52 0.53 0.48 0.43 0.44 0.42 0.41 0.40 0.38 0.35 0.34 0.32 0.31 0.31 0.30 0.27
0.57 0.57 0.61 0.57 0.54 0.52 0.51 0.46 0.45 0.45 0.40 0.40 0.40 0.40 0.36 0.31 0.30 0.30 0.28 0.26 0.26 0.25
0.57 0.58 0.54 0.50 0.50 0.48 0.44 0.45 0.43 0.41 0.39 0.38 0.37 0.35 0.33 0.31 0.30 0.29 0.28 0.27 0.25 0.22
0.55 0.53 0.51 0.52 0.49 0.46 0.43 0.40 0.39 0.37 0.36 0.34 0.33 0.31 0.31 0.32 0.31 0.29 0.29 0.28 0.25 0.23
0.56 0.56 0.53 0.46 0.43 0.39 0.38 0.36 0.34 0.33 0.32 0.31 0.31 0.31 0.31 0.31 0.30 0.30 0.29 0.28 0.25 0.23
0.59 0.49 0.45 0.40 0.37 0.35 0.34 0.32 0.31 0.30 0.32 0.32 0.30 0.30 0.31 0.31 0.31 0.29 0.28 0.26 0.25 0.24
0.48 0.44 0.39 0.33 0.31 0.30 0.29 0.29 0.28 0.28 0.30 0.30 0.29 0.30 0.31 0.32 0.31 0.27 0.25 0.23 0.22 0.23

GFSNIL_prec_pwat_054.txt.gz
Precipitable_Water
0.88 0.86 0.85 0.86 0.85 0.82 0.79 0.78 0.74 0.71 0.71 0.70 0.66 0.55 0.41 0.37 0.39 0.41 0.41 0.41 0.42 0.41
0.87 0.86 0.82 0.84 0.83 0.79 0.79 0.82 0.75 0.74 0.71 0.66 0.57 0.44 0.41 0.40 0.40 0.42 0.41 0.40 0.42 0.43
0.89 0.89 0.88 0.90 0.87 0.85 0.83 0.81 0.75 0.71 0.61 0.53 0.46 0.46 0.44 0.44 0.42 0.41 0.42 0.44 0.42 0.40
0.87 0.86 0.84 0.88 0.86 0.81 0.83 0.78 0.71 0.62 0.52 0.49 0.46 0.49 0.46 0.41 0.41 0.41 0.39 0.37 0.37 0.37
0.84 0.89 0.85 0.84 0.80 0.85 0.77 0.70 0.64 0.57 0.51 0.51 0.51 0.46 0.40 0.40 0.41 0.39 0.38 0.37 0.36 0.35
0.81 0.81 0.82 0.81 0.74 0.78 0.66 0.57 0.55 0.52 0.53 0.51 0.45 0.44 0.43 0.42 0.42 0.40 0.37 0.35 0.34 0.32
0.78 0.78 0.74 0.70 0.69 0.61 0.59 0.59 0.57 0.53 0.52 0.46 0.47 0.43 0.42 0.42 0.40 0.37 0.34 0.32 0.31 0.29
0.69 0.64 0.61 0.68 0.63 0.64 0.61 0.57 0.56 0.51 0.49 0.47 0.42 0.40 0.40 0.37 0.33 0.31 0.29 0.30 0.29 0.28
0.65 0.65 0.69 0.63 0.62 0.59 0.57 0.56 0.51 0.47 0.44 0.40 0.38 0.37 0.36 0.33 0.29 0.28 0.27 0.26 0.26 0.27
0.64 0.62 0.62 0.63 0.61 0.58 0.53 0.48 0.45 0.42 0.37 0.34 0.34 0.34 0.32 0.31 0.28 0.27 0.27 0.26 0.27 0.27
0.60 0.61 0.64 0.67 0.57 0.51 0.46 0.41 0.37 0.33 0.32 0.31 0.31 0.31 0.31 0.31 0.28 0.27 0.27 0.29 0.29 0.28
0.66 0.69 0.64 0.54 0.47 0.42 0.37 0.32 0.30 0.29 0.29 0.28 0.29 0.31 0.31 0.30 0.28 0.27 0.28 0.30 0.32 0.29
0.68 0.56 0.48 0.44 0.38 0.33 0.30 0.28 0.27 0.26 0.27 0.28 0.27 0.30 0.29 0.29 0.28 0.27 0.28 0.30 0.30 0.28
0.55 0.49 0.42 0.34 0.29 0.28 0.25 0.24 0.24 0.25 0.27 0.28 0.29 0.28 0.29 0.30 0.29 0.28 0.28 0.28 0.27 0.27

GFSNIL_prec_pwat_057.txt.gz
Precipitable_Water
1.00 0.91 0.85 0.84 0.88 0.88 0.84 0.83 0.83 0.90 0.87 0.79 0.78 0.73 0.64 0.56 0.48 0.42 0.41 0.42 0.43 0.41
0.99 0.92 0.87 0.88 0.93 0.87 0.88 0.89 0.92 0.84 0.80 0.81 0.73 0.64 0.54 0.45 0.47 0.48 0.48 0.45 0.42 0.41
0.91 0.88 0.87 0.89 0.88 0.87 0.91 0.92 0.87 0.78 0.79 0.74 0.67 0.60 0.51 0.50 0.49 0.45 0.42 0.42 0.40 0.37
0.88 0.88 0.88 0.90 0.86 0.85 0.87 0.88 0.79 0.77 0.71 0.66 0.57 0.53 0.52 0.49 0.44 0.43 0.42 0.41 0.38 0.35
0.92 0.93 0.91 0.91 0.85 0.89 0.79 0.80 0.79 0.69 0.66 0.56 0.55 0.55 0.48 0.45 0.44 0.41 0.38 0.37 0.35 0.31
0.94 0.92 0.91 0.84 0.92 0.77 0.78 0.70 0.71 0.64 0.57 0.57 0.55 0.51 0.47 0.43 0.38 0.37 0.36 0.32 0.29 0.29
0.91 0.88 0.87 0.83 0.78 0.73 0.69 0.69 0.61 0.59 0.59 0.57 0.52 0.47 0.42 0.38 0.36 0.32 0.29 0.28 0.28 0.26
0.88 0.85 0.82 0.77 0.70 0.69 0.69 0.64 0.64 0.59 0.56 0.51 0.45 0.41 0.36 0.33 0.30 0.27 0.25 0.25 0.25 0.26
0.77 0.76 0.72 0.69 0.68 0.65 0.63 0.67 0.60 0.58 0.50 0.44 0.39 0.34 0.32 0.31 0.27 0.26 0.25 0.23 0.25 0.25
0.71 0.66 0.64 0.63 0.64 0.68 0.67 0.63 0.56 0.47 0.42 0.35 0.31 0.31 0.31 0.30 0.28 0.26 0.25 0.24 0.24 0.25
0.61 0.61 0.66 0.71 0.71 0.65 0.57 0.51 0.43 0.38 0.31 0.28 0.28 0.29 0.29 0.29 0.29 0.27 0.26 0.26 0.26 0.26
0.67 0.67 0.69 0.66 0.60 0.53 0.45 0.38 0.31 0.27 0.25 0.25 0.25 0.28 0.29 0.29 0.29 0.27 0.26 0.28 0.28 0.28
0.68 0.68 0.58 0.52 0.47 0.40 0.34 0.27 0.24 0.22 0.23 0.25 0.25 0.27 0.29 0.30 0.29 0.26 0.26 0.28 0.29 0.31
0.61 0.56 0.51 0.44 0.36 0.29 0.23 0.21 0.21 0.21 0.23 0.24 0.26 0.27 0.29 0.31 0.30 0.28 0.27 0.27 0.28 0.30

GFSNIL_prec_pwat_060.txt.gz
Precipitable_Water
1.11 1.13 1.01 0.86 0.82 0.83 0.84 0.86 0.86 0.84 0.83 0.86 0.85 0.79 0.75 0.74 0.61 0.54 0.47 0.47 0.47 0.43
1.13 1.09 0.95 0.88 0.89 0.87 0.87 0.85 0.90 0.86 0.85 0.87 0.83 0.76 0.75 0.62 0.56 0.51 0.48 0.46 0.43 0.41
1.08 1.03 0.99 0.96 0.87 0.88 0.92 0.93 0.90 0.91 0.85 0.82 0.75 0.70 0.64 0.57 0.55 0.50 0.47 0.46 0.43 0.40
0.97 0.99 0.97 0.97 0.97 0.95 0.98 0.90 0.94 0.87 0.83 0.77 0.70 0.64 0.58 0.56 0.53 0.49 0.46 0.43 0.39 0.34
0.97 0.99 0.96 0.95 0.94 1.01 0.93 0.95 0.90 0.83 0.70 0.68 0.65 0.61 0.57 0.53 0.50 0.45 0.41 0.36 0.31 0.26
1.01 0.97 0.96 0.94 0.93 0.95 0.90 0.85 0.78 0.72 0.70 0.65 0.61 0.58 0.56 0.52 0.46 0.42 0.34 0.29 0.26 0.25
0.96 0.95 0.96 0.96 0.90 0.86 0.80 0.74 0.75 0.71 0.66 0.63 0.60 0.56 0.52 0.46 0.40 0.32 0.29 0.27 0.27 0.26
0.92 0.95 0.96 0.88 0.79 0.83 0.82 0.74 0.65 0.67 0.67 0.63 0.60 0.53 0.45 0.38 0.29 0.27 0.26 0.26 0.26 0.25
0.89 0.90 0.82 0.79 0.75 0.74 0.63 0.66 0.70 0.70 0.66 0.61 0.51 0.44 0.36 0.29 0.27 0.27 0.26 0.25 0.25 0.25
0.78 0.74 0.71 0.68 0.66 0.64 0.70 0.73 0.68 0.61 0.54 0.46 0.41 0.33 0.28 0.29 0.28 0.27 0.26 0.26 0.25 0.25
0.64 0.66 0.67 0.69 0.73 0.71 0.70 0.63 0.55 0.49 0.42 0.36 0.28 0.27 0.28 0.29 0.29 0.28 0.27 0.27 0.26 0.26
0.64 0.64 0.69 0.68 0.68 0.61 0.54 0.48 0.42 0.37 0.30 0.24 0.24 0.26 0.28 0.29 0.28 0.27 0.27 0.28 0.29 0.28
0.68 0.70 0.66 0.59 0.55 0.51 0.46 0.38 0.31 0.25 0.23 0.24 0.23 0.25 0.26 0.27 0.28 0.26 0.27 0.29 0.30 0.30
0.62 0.57 0.55 0.50 0.45 0.38 0.30 0.25 0.22 0.21 0.22 0.23 0.24 0.24 0.25 0.26 0.28 0.28 0.28 0.28 0.28 0.30

GFSNIL_prec_pwat_063.txt.gz
Precipitable_Water
1.22 1.20 1.14 1.12 1.08 1.06 0.90 0.86 0.89 0.83 0.86 0.86 0.87 0.83 0.81 0.80 0.79 0.69 0.59 0.54 0.52 0.49
1.17 1.09 1.11 1.15 1.16 0.95 0.92 0.91 0.88 0.88 0.89 0.90 0.91 0.83 0.80 0.78 0.70 0.61 0.57 0.54 0.50 0.46
1.12 1.13 1.16 1.15 1.08 0.97 0.95 0.93 0.92 0.92 0.92 0.93 0.90 0.86 0.76 0.72 0.65 0.59 0.55 0.51 0.48 0.45
1.10 1.13 1.17 1.14 1.08 1.03 1.00 0.96 0.96 0.98 0.94 0.90 0.82 0.74 0.73 0.66 0.60 0.55 0.53 0.49 0.46 0.39
1.11 1.10 1.07 1.08 1.10 1.07 1.01 1.00 1.01 0.97 0.92 0.79 0.75 0.75 0.66 0.60 0.58 0.55 0.49 0.45 0.40 0.31
1.11 1.10 1.07 1.07 1.09 1.04 1.00 0.98 0.95 0.91 0.82 0.79 0.75 0.67 0.63 0.61 0.57 0.51 0.46 0.40 0.32 0.26
1.00 1.04 1.06 1.05 1.03 0.95 0.95 0.92 0.87 0.84 0.83 0.75 0.69 0.64 0.62 0.58 0.53 0.48 0.40 0.33 0.28 0.26
0.94 0.90 0.90 0.87 0.87 0.89 0.85 0.83 0.80 0.75 0.69 0.68 0.68 0.65 0.62 0.54 0.47 0.38 0.30 0.29 0.28 0.27
0.81 0.76 0.75 0.83 0.77 0.80 0.73 0.71 0.69 0.69 0.70 0.68 0.65 0.59 0.51 0.44 0.36 0.30 0.28 0.26 0.27 0.27
0.70 0.72 0.73 0.74 0.71 0.66 0.70 0.71 0.71 0.69 0.63 0.56 0.52 0.46 0.40 0.33 0.30 0.29 0.28 0.28 0.27 0.27
0.70 0.68 0.69 0.70 0.70 0.67 0.71 0.68 0.59 0.53 0.49 0.44 0.37 0.32 0.28 0.28 0.29 0.29 0.29 0.29 0.29 0.29
0.66 0.65 0.65 0.67 0.68 0.66 0.59 0.53 0.49 0.44 0.37 0.31 0.26 0.25 0.26 0.26 0.27 0.27 0.27 0.29 0.30 0.31
0.65 0.68 0.67 0.60 0.56 0.53 0.48 0.41 0.36 0.30 0.28 0.26 0.25 0.27 0.26 0.27 0.27 0.26 0.26 0.27 0.28 0.30
0.60 0.56 0.55 0.50 0.45 0.40 0.36 0.32 0.29 0.27 0.27 0.26 0.27 0.26 0.26 0.28 0.29 0.29 0.28 0.28 0.27 0.28

GFSNIL_prec_pwat_066.txt.gz
Precipitable_Water
1.28 1.20 1.22 1.17 1.17 1.13 1.11 1.13 1.14 1.04 0.96 0.94 0.88 0.86 0.86 0.87 0.83 0.80 0.79 0.69 0.62 0.55
1.23 1.13 1.11 1.13 1.19 1.13 1.16 1.17 1.12 1.02 0.98 0.93 0.91 0.89 0.90 0.89 0.85 0.80 0.73 0.67 0.63 0.55
1.10 1.18 1.18 1.20 1.16 1.19 1.24 1.19 1.04 1.01 0.97 0.94 0.94 0.94 0.91 0.85 0.80 0.74 0.72 0.64 0.60 0.57
1.12 1.13 1.17 1.16 1.19 1.23 1.24 1.15 1.05 1.02 0.98 0.94 0.96 0.91 0.86 0.79 0.77 0.72 0.65 0.63 0.57 0.53
1.07 1.12 1.14 1.12 1.13 1.17 1.12 1.10 1.08 1.02 0.98 0.94 0.88 0.84 0.84 0.79 0.73 0.68 0.62 0.58 0.55 0.50
1.02 1.04 1.07 1.07 1.08 1.11 1.07 1.03 0.99 0.98 0.92 0.85 0.83 0.83 0.81 0.75 0.68 0.63 0.59 0.55 0.49 0.44
0.98 0.98 0.98 1.03 1.03 1.03 1.00 0.99 0.91 0.86 0.80 0.84 0.82 0.79 0.73 0.67 0.62 0.60 0.56 0.49 0.43 0.37
0.94 0.92 0.91 0.89 0.88 0.84 0.82 0.79 0.78 0.79 0.78 0.77 0.72 0.69 0.66 0.63 0.58 0.51 0.47 0.42 0.37 0.35
0.86 0.86 0.85 0.81 0.75 0.73 0.75 0.75 0.73 0.74 0.71 0.69 0.67 0.65 0.58 0.52 0.48 0.44 0.38 0.33 0.33 0.33
0.80 0.74 0.69 0.68 0.68 0.71 0.69 0.70 0.67 0.70 0.68 0.64 0.60 0.53 0.45 0.40 0.36 0.33 0.32 0.31 0.32 0.32
0.66 0.64 0.66 0.67 0.68 0.68 0.69 0.68 0.66 0.60 0.54 0.48 0.43 0.38 0.33 0.30 0.29 0.28 0.29 0.31 0.33 0.33
0.64 0.65 0.66 0.66 0.65 0.67 0.63 0.57 0.52 0.46 0.40 0.36 0.33 0.31 0.29 0.28 0.28 0.28 0.28 0.29 0.30 0.29
0.64 0.63 0.62 0.59 0.56 0.55 0.51 0.43 0.38 0.34 0.34 0.34 0.32 0.33 0.30 0.29 0.27 0.26 0.26 0.26 0.27 0.28
0.58 0.55 0.55 0.52 0.49 0.44 0.39 0.36 0.35 0.34 0.32 0.28 0.26 0.26 0.26 0.24 0.21 0.20 0.19 0.18 0.18 0.20

GFSNIL_prec_pwat_069.txt.gz
Precipitable_Water
1.27 1.26 1.28 1.33 1.20 1.16 1.13 1.17 1.22 1.21 1.15 1.17 1.13 1.08 1.00 0.96 0.87 0.87 0.88 0.84 0.80 0.78
1.23 1.23 1.22 1.23 1.16 1.11 1.15 1.20 1.22 1.20 1.14 1.18 1.12 1.03 0.98 0.92 0.89 0.93 0.89 0.80 0.82 0.77
1.17 1.15 1.16 1.12 1.11 1.17 1.19 1.21 1.21 1.21 1.18 1.13 1.04 1.00 0.96 0.94 0.97 0.89 0.81 0.81 0.77 0.74
1.13 1.11 1.12 1.13 1.20 1.16 1.16 1.19 1.19 1.17 1.13 1.05 1.00 0.98 0.98 0.95 0.89 0.83 0.80 0.78 0.73 0.68
1.12 1.12 1.14 1.17 1.11 1.09 1.08 1.12 1.09 1.11 1.05 0.99 0.98 0.98 0.93 0.87 0.86 0.79 0.74 0.72 0.68 0.63
1.09 1.12 1.09 1.05 1.04 1.03 1.01 0.98 1.01 1.04 0.98 0.95 0.90 0.85 0.86 0.83 0.80 0.75 0.69 0.66 0.62 0.58
1.00 1.00 1.00 1.01 1.01 0.99 0.97 0.93 0.90 0.86 0.81 0.75 0.73 0.75 0.75 0.74 0.71 0.67 0.63 0.63 0.58 0.50
0.99 1.00 0.98 0.97 0.95 0.94 0.92 0.89 0.83 0.77 0.74 0.74 0.75 0.73 0.71 0.69 0.67 0.64 0.58 0.52 0.47 0.44
0.97 0.95 0.93 0.90 0.87 0.84 0.80 0.79 0.72 0.69 0.69 0.69 0.68 0.66 0.63 0.58 0.53 0.48 0.43 0.39 0.39 0.38
0.91 0.89 0.83 0.81 0.76 0.69 0.66 0.67 0.67 0.67 0.66 0.62 0.63 0.62 0.53 0.46 0.39 0.35 0.34 0.33 0.32 0.33
0.74 0.70 0.67 0.65 0.62 0.62 0.66 0.66 0.66 0.65 0.62 0.55 0.50 0.44 0.39 0.34 0.31 0.30 0.30 0.32 0.32 0.32
0.63 0.61 0.60 0.60 0.63 0.65 0.63 0.63 0.57 0.53 0.48 0.43 0.39 0.40 0.36 0.34 0.32 0.31 0.31 0.31 0.30 0.29
0.60 0.60 0.61 0.62 0.60 0.58 0.55 0.51 0.46 0.42 0.40 0.39 0.37 0.39 0.35 0.30 0.28 0.24 0.23 0.23 0.22 0.21
0.60 0.58 0.55 0.54 0.53 0.49 0.46 0.44 0.43 0.38 0.37 0.33 0.33 0.32 0.30 0.27 0.24 0.23 0.20 0.17 0.16 0.18

GFSNIL_prec_pwat_072.txt.gz
Precipitable_Water
1.14 1.19 1.14 1.15 1.20 1.19 1.20 1.14 1.17 1.17 1.19 1.22 1.23 1.22 1.19 1.16 1.08 1.04 0.95 0.87 0.91 0.90
1.20 1.19 1.18 1.21 1.21 1.19 1.17 1.13 1.16 1.16 1.20 1.20 1.19 1.18 1.15 1.10 1.04 1.02 0.94 0.92 0.95 0.88
1.19 1.24 1.26 1.23 1.20 1.19 1.17 1.15 1.21 1.13 1.12 1.13 1.15 1.14 1.11 1.05 1.01 0.96 0.95 0.94 0.89 0.88
1.20 1.22 1.24 1.21 1.18 1.18 1.17 1.19 1.14 1.07 1.07 1.05 1.02 1.03 1.02 0.99 0.95 0.92 0.91 0.88 0.86 0.83
1.27 1.27 1.26 1.22 1.22 1.20 1.19 1.18 1.06 1.02 1.01 0.96 0.92 0.91 0.87 0.83 0.80 0.80 0.76 0.74 0.73 0.70
1.19 1.15 1.14 1.13 1.13 1.14 1.10 1.05 1.01 0.99 0.95 0.90 0.86 0.85 0.80 0.76 0.71 0.73 0.73 0.70 0.67 0.65
1.13 1.09 1.06 1.08 1.09 1.06 1.04 1.04 1.00 0.97 0.91 0.88 0.83 0.80 0.73 0.72 0.72 0.70 0.70 0.68 0.66 0.59
1.00 1.00 1.05 1.07 1.05 1.05 1.03 0.99 0.95 0.89 0.84 0.79 0.77 0.73 0.72 0.70 0.68 0.67 0.63 0.60 0.55 0.51
0.98 1.01 1.01 1.02 0.99 0.98 0.96 0.91 0.84 0.79 0.75 0.71 0.71 0.70 0.67 0.64 0.59 0.55 0.49 0.44 0.42 0.40
0.98 0.97 0.95 0.95 0.91 0.87 0.82 0.78 0.70 0.67 0.67 0.65 0.63 0.63 0.62 0.57 0.48 0.39 0.35 0.33 0.31 0.30
0.89 0.87 0.82 0.77 0.74 0.69 0.65 0.63 0.63 0.64 0.64 0.63 0.58 0.56 0.51 0.44 0.39 0.35 0.34 0.33 0.34 0.33
0.73 0.70 0.68 0.63 0.60 0.61 0.62 0.63 0.63 0.61 0.55 0.52 0.49 0.47 0.42 0.38 0.36 0.33 0.31 0.30 0.28 0.25
0.68 0.65 0.59 0.59 0.61 0.62 0.62 0.58 0.53 0.50 0.49 0.46 0.43 0.42 0.38 0.35 0.32 0.26 0.25 0.24 0.21 0.18
0.61 0.60 0.60 0.61 0.59 0.54 0.50 0.50 0.49 0.45 0.42 0.40 0.39 0.37 0.34 0.30 0.27 0.25 0.22 0.19 0.18 0.18

GFSNIL_prec_pwat_075.txt.gz
Precipitable_Water
1.13 1.07 1.03 1.02 1.05 1.08 1.13 1.20 1.25 1.23 1.19 1.16 1.19 1.20 1.19 1.17 1.14 1.12 1.11 1.05 1.02 0.97
1.11 1.09 1.04 1.02 1.08 1.10 1.17 1.25 1.26 1.22 1.19 1.22 1.23 1.16 1.15 1.10 1.08 1.05 1.04 1.03 0.99 0.95
1.09 1.14 1.15 1.12 1.08 1.13 1.25 1.23 1.22 1.20 1.19 1.20 1.12 1.09 1.06 1.04 0.98 0.95 0.96 0.97 0.90 0.88
1.08 1.14 1.21 1.20 1.27 1.33 1.34 1.26 1.24 1.19 1.17 1.11 1.04 1.03 1.00 0.95 0.89 0.84 0.80 0.80 0.75 0.73
1.17 1.26 1.37 1.42 1.43 1.31 1.29 1.24 1.16 1.15 1.12 1.04 1.04 1.02 0.93 0.87 0.83 0.80 0.77 0.75 0.73 0.74
1.29 1.19 1.22 1.31 1.30 1.23 1.19 1.15 1.18 1.10 1.05 1.03 1.00 0.97 0.88 0.86 0.78 0.81 0.74 0.72 0.70 0.68
1.11 1.12 1.17 1.16 1.13 1.10 1.10 1.08 1.06 1.05 1.03 1.01 0.96 0.89 0.83 0.78 0.77 0.74 0.72 0.69 0.69 0.67
1.00 1.04 1.05 1.05 1.04 1.07 1.07 1.06 1.03 1.01 0.97 0.94 0.87 0.79 0.77 0.76 0.71 0.68 0.67 0.68 0.64 0.58
0.95 0.99 0.98 0.98 1.01 1.04 1.02 1.01 0.97 0.93 0.90 0.80 0.76 0.75 0.72 0.69 0.65 0.64 0.59 0.53 0.50 0.48
0.91 0.90 0.93 0.95 0.95 0.94 0.92 0.92 0.87 0.82 0.76 0.71 0.68 0.68 0.66 0.63 0.60 0.52 0.44 0.38 0.35 0.32
0.87 0.88 0.89 0.89 0.89 0.87 0.81 0.75 0.70 0.64 0.61 0.61 0.62 0.64 0.62 0.57 0.49 0.42 0.38 0.36 0.34 0.33
0.85 0.83 0.79 0.74 0.72 0.70 0.66 0.62 0.60 0.60 0.60 0.58 0.55 0.54 0.51 0.46 0.41 0.38 0.36 0.34 0.29 0.25
0.72 0.70 0.66 0.66 0.64 0.63 0.61 0.59 0.58 0.55 0.53 0.52 0.50 0.48 0.44 0.41 0.38 0.32 0.28 0.27 0.24 0.23
0.68 0.67 0.66 0.63 0.60 0.59 0.58 0.55 0.52 0.51 0.52 0.49 0.46 0.43 0.40 0.37 0.33 0.29 0.27 0.24 0.22 0.22

GFSNIL_prec_pwat_078.txt.gz
Precipitable_Water
1.06 1.05 1.03 1.02 1.01 0.98 0.97 1.02 1.13 1.18 1.27 1.29 1.24 1.19 1.23 1.17 1.12 1.11 1.11 0.99 1.07 0.97
1.04 1.06 1.07 1.09 1.11 1.04 1.05 1.05 1.12 1.22 1.27 1.27 1.24 1.23 1.24 1.15 1.07 1.06 1.00 1.06 0.93 0.88
1.01 1.06 1.11 1.17 1.11 1.11 1.10 1.14 1.22 1.29 1.34 1.32 1.28 1.27 1.21 1.08 1.06 1.03 0.98 0.94 0.86 0.82
1.05 1.06 1.12 1.15 1.22 1.26 1.32 1.35 1.31 1.36 1.31 1.28 1.25 1.19 1.10 1.05 1.05 0.95 0.89 0.86 0.79 0.78
1.12 1.21 1.22 1.29 1.32 1.32 1.34 1.32 1.16 1.16 1.28 1.25 1.17 1.11 1.07 1.05 0.99 0.91 0.82 0.79 0.76 0.78
1.14 1.23 1.21 1.22 1.24 1.35 1.28 1.17 1.14 1.23 1.21 1.13 1.07 1.06 1.05 1.01 0.96 0.87 0.79 0.75 0.75 0.73
1.06 1.11 1.16 1.21 1.23 1.24 1.17 1.12 1.15 1.16 1.13 1.08 1.05 1.02 0.98 0.94 0.86 0.74 0.77 0.75 0.74 0.67
0.96 1.01 1.06 1.07 1.09 1.09 1.11 1.09 1.11 1.09 1.07 1.03 0.98 0.95 0.91 0.87 0.74 0.71 0.73 0.70 0.67 0.66
0.90 0.93 0.94 0.97 0.99 1.00 1.00 0.99 0.99 0.98 0.96 0.95 0.94 0.91 0.82 0.74 0.72 0.70 0.64 0.61 0.61 0.59
0.89 0.86 0.88 0.93 0.95 0.93 0.93 0.95 0.93 0.94 0.95 0.89 0.83 0.78 0.75 0.72 0.65 0.62 0.60 0.56 0.50 0.45
0.86 0.85 0.88 0.92 0.91 0.91 0.92 0.92 0.91 0.83 0.78 0.75 0.74 0.72 0.67 0.63 0.61 0.56 0.51 0.46 0.40 0.36
0.82 0.81 0.85 0.85 0.87 0.89 0.81 0.74 0.72 0.71 0.68 0.63 0.60 0.62 0.62 0.61 0.57 0.50 0.43 0.40 0.37 0.33
0.85 0.87 0.84 0.80 0.74 0.73 0.71 0.67 0.65 0.62 0.60 0.59 0.58 0.59 0.58 0.55 0.48 0.42 0.38 0.35 0.31 0.28
0.75 0.74 0.74 0.73 0.71 0.68 0.65 0.62 0.59 0.59 0.58 0.56 0.56 0.57 0.54 0.48 0.42 0.38 0.33 0.30 0.27 0.26

GFSNIL_prec_pwat_081.txt.gz
Precipitable_Water
0.79 0.80 0.82 0.83 0.82 0.83 0.85 0.87 0.93 0.95 1.06 1.14 1.19 1.22 1.28 1.25 1.18 1.16 1.11 1.05 1.01 1.03
0.83 0.87 0.91 0.98 1.01 1.03 1.06 1.07 1.07 1.04 1.02 1.10 1.20 1.27 1.33 1.28 1.24 1.19 1.13 1.04 1.04 0.98
0.90 0.96 1.01 1.04 1.03 1.08 1.17 1.23 1.26 1.24 1.21 1.20 1.27 1.31 1.32 1.28 1.26 1.18 1.11 1.08 1.01 1.02
1.02 1.04 1.08 1.10 1.10 1.11 1.18 1.25 1.27 1.30 1.27 1.30 1.31 1.28 1.21 1.22 1.18 1.11 1.07 1.07 1.00 0.92
1.08 1.14 1.15 1.15 1.18 1.24 1.24 1.30 1.28 1.33 1.19 1.10 1.12 1.16 1.18 1.16 1.11 1.07 1.03 0.98 0.92 0.88
1.11 1.09 1.11 1.12 1.19 1.26 1.31 1.35 1.35 1.29 1.20 1.03 1.06 1.10 1.16 1.15 1.10 1.04 0.99 0.94 0.90 0.81
0.92 0.96 1.08 1.12 1.13 1.14 1.22 1.26 1.26 1.21 1.14 1.06 1.05 1.09 1.13 1.05 1.00 0.98 0.96 0.94 0.85 0.74
0.90 1.00 1.09 1.11 1.11 1.12 1.15 1.13 1.15 1.12 1.06 1.04 1.06 1.07 1.04 1.01 0.99 0.94 0.89 0.83 0.72 0.69
0.96 1.02 1.02 1.03 1.01 1.02 1.01 1.03 1.03 1.00 1.00 1.00 1.02 1.03 1.04 1.01 0.93 0.88 0.77 0.65 0.64 0.64
0.90 0.91 0.92 0.95 0.96 0.94 0.94 0.97 0.96 0.97 0.99 0.97 0.99 1.02 0.97 0.91 0.81 0.73 0.67 0.63 0.60 0.58
0.91 0.90 0.90 0.90 0.91 0.90 0.90 0.92 0.95 0.95 0.95 0.96 0.91 0.87 0.81 0.75 0.71 0.66 0.64 0.60 0.59 0.57
0.98 0.94 0.93 0.85 0.83 0.85 0.89 0.90 0.90 0.91 0.84 0.78 0.77 0.77 0.74 0.69 0.64 0.59 0.58 0.57 0.55 0.49
0.91 0.87 0.81 0.84 0.87 0.89 0.87 0.81 0.77 0.74 0.73 0.72 0.70 0.69 0.64 0.62 0.60 0.58 0.55 0.51 0.46 0.40
0.82 0.83 0.87 0.85 0.82 0.79 0.76 0.74 0.70 0.68 0.68 0.67 0.64 0.62 0.62 0.60 0.57 0.54 0.50 0.44 0.38 0.34

GFSNIL_prec_pwat_084.txt.gz
Precipitable_Water
0.85 0.85 0.85 0.86 0.88 0.84 0.82 0.82 0.86 0.88 0.91 0.93 0.97 1.00 1.05 1.13 1.19 1.23 1.24 1.20 1.16 1.10
0.83 0.84 0.84 0.87 0.89 0.88 0.87 0.85 0.87 0.91 0.92 0.94 0.96 1.05 1.13 1.15 1.16 1.19 1.33 1.24 1.20 1.15
0.80 0.80 0.82 0.83 0.82 0.85 0.87 0.90 0.97 1.05 1.14 1.21 1.25 1.21 1.19 1.20 1.24 1.27 1.20 1.24 1.16 1.14
0.80 0.83 0.88 0.89 0.94 0.99 1.04 1.10 1.14 1.21 1.25 1.29 1.30 1.23 1.19 1.23 1.26 1.17 1.14 1.10 1.10 1.13
0.97 0.99 0.97 0.99 1.03 1.09 1.10 1.17 1.23 1.28 1.29 1.30 1.28 1.17 1.13 1.11 1.15 1.10 1.05 1.07 1.10 1.08
1.00 1.03 1.05 1.07 1.14 1.17 1.19 1.23 1.28 1.30 1.29 1.34 1.19 1.21 1.15 1.10 1.04 1.03 1.07 1.11 1.04 1.01
0.89 0.91 0.95 1.02 1.04 1.11 1.15 1.15 1.17 1.20 1.23 1.28 1.26 1.24 1.13 1.03 1.02 1.02 1.04 1.04 1.02 0.99
0.81 0.86 0.91 0.96 1.02 1.09 1.12 1.13 1.15 1.15 1.15 1.15 1.13 1.11 1.06 1.00 0.98 1.00 0.98 1.01 1.00 0.93
0.84 0.88 0.90 0.97 1.02 1.07 1.09 1.11 1.09 1.04 1.02 1.01 1.03 1.06 1.02 1.02 0.99 0.97 1.01 0.89 0.87 0.83
0.90 0.93 0.94 0.95 0.98 0.99 0.99 0.99 0.97 0.96 0.97 0.93 0.96 0.98 1.00 0.99 0.99 0.95 0.87 0.82 0.77 0.69
0.92 0.93 0.94 0.93 0.96 0.98 0.97 0.94 0.90 0.89 0.91 0.93 0.94 0.96 0.96 0.96 0.87 0.82 0.78 0.70 0.63 0.63
0.90 0.89 0.91 0.93 0.97 0.96 0.92 0.83 0.84 0.88 0.89 0.89 0.89 0.90 0.86 0.84 0.75 0.71 0.69 0.67 0.64 0.61
0.91 0.93 0.92 0.91 0.89 0.84 0.85 0.86 0.87 0.86 0.84 0.82 0.78 0.77 0.75 0.73 0.70 0.65 0.62 0.60 0.59 0.56
0.88 0.85 0.84 0.83 0.85 0.86 0.84 0.82 0.78 0.76 0.74 0.73 0.73 0.71 0.70 0.69 0.66 0.64 0.60 0.57 0.54 0.51

GFSNIL_prec_pwat_087.txt.gz
Precipitable_Water
0.89 0.90 0.86 0.87 0.86 0.85 0.87 0.94 0.94 0.93 0.94 0.95 0.96 0.96 0.99 0.99 1.00 1.03 1.06 1.07 1.10 1.12
0.86 0.88 0.90 0.91 0.91 0.91 0.93 0.95 0.94 0.90 0.89 0.92 0.95 0.99 1.03 1.05 1.05 1.08 1.08 1.08 1.15 1.18
0.82 0.84 0.86 0.87 0.87 0.88 0.88 0.89 0.91 0.92 0.92 0.96 0.99 1.03 1.06 1.06 1.07 1.10 1.14 1.17 1.18 1.18
0.81 0.84 0.85 0.83 0.85 0.88 0.91 0.94 0.94 0.95 0.96 0.96 0.98 1.07 1.13 1.18 1.21 1.19 1.17 1.20 1.24 1.17
0.84 0.85 0.86 0.87 0.91 0.94 0.91 0.94 0.93 0.96 1.00 1.06 1.14 1.24 1.27 1.25 1.11 1.11 1.13 1.08 1.15 1.09
0.93 0.92 0.93 0.98 1.02 1.04 1.03 1.07 1.07 1.10 1.12 1.18 1.25 1.27 1.32 1.20 1.16 1.16 1.17 1.09 1.05 1.03
0.86 0.92 0.91 0.95 0.96 0.99 1.08 1.11 1.13 1.16 1.18 1.19 1.20 1.22 1.25 1.19 1.19 1.16 1.12 1.06 1.03 1.02
0.82 0.83 0.86 0.90 0.93 0.97 1.01 1.05 1.13 1.17 1.16 1.17 1.18 1.15 1.12 1.12 1.09 1.06 1.04 0.99 0.96 0.97
0.83 0.85 0.86 0.88 0.91 0.95 0.99 1.05 1.10 1.11 1.12 1.10 1.08 1.07 1.04 1.04 1.01 0.98 0.97 0.90 0.89 0.97
0.85 0.86 0.92 0.96 0.99 1.00 1.00 1.03 1.03 1.01 1.01 0.99 0.98 0.98 0.98 0.94 0.94 0.92 0.93 0.89 0.89 0.91
0.89 0.89 0.94 0.98 0.97 0.97 0.95 0.92 0.94 0.96 0.96 0.93 0.91 0.91 0.89 0.90 0.89 0.89 0.88 0.86 0.84 0.75
0.89 0.88 0.90 0.90 0.91 0.92 0.93 0.94 0.94 0.91 0.88 0.84 0.85 0.87 0.88 0.89 0.87 0.84 0.79 0.79 0.78 0.73
0.86 0.85 0.83 0.84 0.86 0.89 0.89 0.86 0.83 0.82 0.85 0.84 0.84 0.85 0.84 0.82 0.79 0.73 0.72 0.70 0.70 0.68
0.90 0.88 0.87 0.86 0.85 0.83 0.81 0.81 0.82 0.82 0.82 0.81 0.80 0.78 0.75 0.73 0.69 0.66 0.65 0.64 0.63 0.62

GFSNIL_prec_pwat_090.txt.gz
Precipitable_Water
0.97 0.91 0.94 0.95 0.94 0.95 0.97 1.02 1.11 1.12 1.09 1.08 1.10 1.12 1.10 1.04 1.04 1.08 1.05 1.04 1.03 1.02
0.93 0.93 0.92 0.93 1.00 0.98 0.97 1.00 1.02 1.04 1.01 1.02 1.03 1.03 1.03 1.03 1.03 1.07 1.08 1.08 1.10 1.10
0.91 0.93 0.95 0.95 0.93 0.94 0.96 0.97 0.96 0.99 0.98 1.00 1.00 1.03 1.06 1.04 1.09 1.08 1.11 1.13 1.13 1.12
0.88 0.91 0.92 0.93 0.95 0.93 0.94 0.95 0.95 0.96 0.99 1.02 1.02 1.04 1.04 1.05 1.08 1.06 1.08 1.09 1.06 1.02
0.88 0.91 0.90 0.90 0.94 0.97 0.94 0.98 0.98 0.99 0.98 1.00 1.02 1.04 1.03 1.00 1.01 1.07 1.12 1.09 1.11 1.08
0.87 0.87 0.89 0.92 0.95 0.96 0.98 1.02 1.02 1.01 1.02 1.00 1.01 1.04 1.10 1.09 1.13 1.17 1.22 1.21 1.06 1.10
0.91 0.93 0.93 0.93 0.96 1.01 1.07 1.03 1.07 1.06 1.07 1.09 1.11 1.16 1.20 1.20 1.18 1.22 1.21 1.17 1.12 1.15
0.92 0.94 0.94 0.93 0.96 0.96 0.95 0.95 0.97 1.04 1.11 1.14 1.21 1.22 1.22 1.20 1.20 1.16 1.10 1.10 1.07 1.08
0.83 0.86 0.87 0.89 0.90 0.93 0.93 0.97 1.00 1.01 1.04 1.08 1.15 1.17 1.16 1.15 1.10 1.07 1.01 0.96 0.95 0.97
0.83 0.85 0.87 0.89 0.90 0.92 0.94 1.00 0.99 1.01 1.02 0.99 1.00 1.02 1.02 1.02 0.99 0.95 0.90 0.87 0.87 0.87
0.87 0.89 0.92 0.91 0.92 0.96 1.00 0.99 0.96 0.95 0.95 0.93 0.94 0.99 1.00 0.97 0.92 0.90 0.86 0.85 0.83 0.84
0.89 0.90 0.92 0.91 0.93 0.95 0.95 0.96 0.96 0.94 0.92 0.91 0.91 0.91 0.89 0.86 0.86 0.82 0.80 0.80 0.82 0.79
0.94 0.94 0.90 0.88 0.88 0.90 0.89 0.87 0.88 0.87 0.85 0.85 0.81 0.82 0.83 0.84 0.82 0.77 0.75 0.76 0.73 0.74
0.94 0.93 0.89 0.87 0.86 0.85 0.83 0.82 0.80 0.79 0.78 0.79 0.79 0.78 0.78 0.77 0.77 0.73 0.68 0.67 0.65 0.65

GFSNIL_prec_pwat_093.txt.gz
Precipitable_Water
1.03 1.03 1.06 1.07 1.07 1.08 1.10 1.13 1.14 1.08 1.09 1.13 1.14 1.12 1.13 1.13 1.07 1.12 1.13 1.04 1.03 1.04
0.97 0.95 0.97 1.02 1.03 1.00 0.98 1.00 1.03 1.03 1.02 1.04 1.08 1.08 1.08 1.06 1.03 1.09 1.10 1.06 1.05 1.08
0.95 0.99 0.97 0.98 0.99 0.98 0.99 0.98 1.01 1.01 1.03 1.05 1.06 1.05 1.04 1.03 1.05 1.05 1.08 1.08 1.10 1.14
0.92 0.96 0.97 0.96 0.97 0.98 1.04 1.04 0.99 1.04 1.06 1.06 1.05 1.07 1.06 1.04 1.04 1.04 1.05 1.08 1.10 1.09
0.91 0.97 0.99 1.00 1.00 1.02 1.01 1.03 1.02 1.01 1.01 1.00 1.03 1.07 1.06 1.05 1.06 1.03 1.03 1.03 1.05 1.04
0.85 0.87 0.91 0.96 0.99 1.03 1.02 1.02 1.04 1.04 1.02 1.01 1.03 1.05 1.09 1.08 1.06 1.06 1.10 1.13 1.11 1.08
0.89 0.89 0.89 0.92 0.94 0.97 1.01 0.99 1.03 1.07 1.07 1.08 1.09 1.09 1.09 1.12 1.12 1.16 1.18 1.19 1.20 1.20
0.91 0.94 0.94 0.94 0.95 0.96 0.96 1.00 1.04 1.02 1.06 1.06 1.05 1.09 1.09 1.10 1.10 1.16 1.21 1.20 1.15 1.10
0.86 0.92 0.96 0.96 0.96 0.96 0.95 1.00 1.00 0.97 0.96 0.97 1.01 1.06 1.12 1.16 1.14 1.13 1.08 1.01 0.99 0.97
0.84 0.88 0.89 0.92 0.93 0.93 0.96 0.99 0.96 0.93 0.96 0.99 1.04 1.07 1.08 1.07 1.03 0.98 0.96 0.93 0.91 0.89
0.83 0.83 0.88 0.91 0.93 0.93 0.94 0.93 0.94 0.97 1.00 0.99 0.97 0.97 0.99 1.00 0.95 0.92 0.91 0.91 0.87 0.84
0.90 0.88 0.89 0.87 0.90 0.92 0.94 0.92 0.90 0.92 0.92 0.90 0.90 0.94 0.95 0.95 0.92 0.89 0.84 0.82 0.81 0.80
0.94 0.92 0.90 0.90 0.90 0.91 0.91 0.88 0.88 0.85 0.86 0.88 0.87 0.87 0.86 0.85 0.84 0.78 0.75 0.77 0.78 0.77
0.93 0.91 0.91 0.90 0.90 0.90 0.88 0.85 0.80 0.80 0.80 0.79 0.79 0.79 0.78 0.79 0.78 0.75 0.73 0.71 0.69 0.69

GFSNIL_prec_pwat_096.txt.gz
Precipitable_Water
1.02 1.01 1.01 1.01 1.08 1.15 1.16 1.17 1.22 1.19 1.14 1.14 1.21 1.26 1.22 1.12 1.06 1.09 1.07 1.02 1.02 1.00
0.97 0.97 0.95 0.99 1.02 1.04 1.10 1.11 1.11 1.08 1.08 1.07 1.08 1.16 1.09 1.05 1.05 1.07 1.08 1.08 1.04 1.07
0.93 0.96 0.97 0.99 0.97 0.97 0.98 0.99 1.01 0.99 0.99 0.98 1.09 1.10 1.05 1.05 1.10 1.05 1.05 1.06 1.06 1.06
0.92 0.93 0.94 0.94 0.95 0.95 0.95 0.96 0.95 0.95 0.96 0.96 0.96 0.98 1.02 1.04 1.08 1.04 1.00 1.05 1.05 1.04
0.90 0.96 0.94 0.96 0.98 1.00 1.00 0.98 0.94 0.94 0.99 0.99 1.00 1.04 1.08 1.07 1.10 1.10 1.07 1.06 1.09 1.06
0.88 0.91 0.94 1.00 0.99 1.05 1.04 1.02 1.05 1.04 1.01 1.07 1.09 1.10 1.10 1.08 1.07 1.08 1.08 1.11 1.11 1.11
0.84 0.88 0.90 0.96 0.96 0.99 1.03 1.05 1.08 1.07 1.03 1.03 1.07 1.08 1.08 1.08 1.09 1.13 1.16 1.20 1.19 1.15
0.87 0.89 0.91 0.90 0.91 0.94 0.96 0.96 0.98 0.96 0.98 1.03 1.06 1.06 1.07 1.09 1.11 1.11 1.08 1.05 1.05 1.04
0.90 0.90 0.90 0.94 0.97 0.98 0.99 1.00 1.01 1.01 1.01 1.04 1.02 1.02 1.05 1.06 1.03 1.02 1.02 0.99 0.98 0.96
0.88 0.91 0.93 0.97 1.00 1.00 1.00 1.03 1.00 0.95 0.96 0.95 0.94 0.96 0.98 1.00 1.03 1.01 0.99 0.98 0.96 0.93
0.93 0.91 0.94 0.98 1.00 0.98 0.95 0.92 0.93 0.93 0.92 0.92 0.92 0.95 1.00 1.03 1.01 0.97 0.94 0.93 0.91 0.88
0.94 0.94 0.97 0.97 0.91 0.90 0.91 0.90 0.90 0.91 0.90 0.90 0.90 0.94 0.97 0.97 0.93 0.91 0.89 0.88 0.85 0.83
1.01 0.95 0.91 0.91 0.90 0.92 0.91 0.90 0.89 0.89 0.90 0.89 0.87 0.87 0.88 0.91 0.88 0.83 0.80 0.77 0.78 0.76
0.97 0.95 0.95 0.94 0.93 0.91 0.90 0.89 0.87 0.87 0.87 0.87 0.86 0.83 0.83 0.84 0.78 0.73 0.71 0.69 0.69 0.69

GFSNIL_prec_pwat_102.txt.gz
Precipitable_Water
1.11 1.16 1.19 1.26 1.29 1.31 1.34 1.35 1.41 1.40 1.40 1.41 1.34 1.37 1.36 1.28 1.23 1.20 1.15 1.15 1.13 1.11
0.95 0.97 0.98 1.06 1.16 1.24 1.31 1.36 1.36 1.35 1.31 1.29 1.28 1.30 1.29 1.25 1.19 1.20 1.16 1.15 1.12 1.08
0.91 0.96 0.99 1.02 1.06 1.15 1.22 1.29 1.30 1.30 1.29 1.23 1.19 1.19 1.18 1.16 1.17 1.17 1.16 1.12 1.11 1.07
0.88 0.91 0.96 0.96 1.01 1.06 1.12 1.20 1.23 1.24 1.22 1.16 1.11 1.08 1.10 1.06 1.06 1.06 1.07 1.08 1.09 1.07
0.87 0.89 0.88 0.90 0.94 1.00 0.98 1.05 1.09 1.12 1.08 1.04 1.02 1.02 1.01 1.00 1.02 1.03 1.02 1.05 1.04 1.05
0.82 0.85 0.89 0.93 0.95 0.94 0.95 0.94 0.96 0.95 0.93 0.93 0.95 0.94 0.96 0.98 0.97 0.99 1.01 1.01 1.02 1.06
0.80 0.82 0.89 0.94 0.97 0.97 0.99 0.98 0.97 0.97 0.97 0.96 0.98 0.97 0.95 0.97 0.96 0.97 0.99 1.03 1.04 1.06
0.84 0.86 0.86 0.89 0.94 0.97 0.98 0.99 1.01 1.00 1.00 1.01 1.01 0.99 0.97 0.97 0.98 0.97 0.98 0.98 1.00 1.04
0.84 0.86 0.85 0.86 0.89 0.92 0.93 0.93 0.94 0.94 0.95 0.95 0.96 0.96 0.97 0.96 0.94 0.96 0.94 0.90 0.94 0.94
0.92 0.87 0.86 0.88 0.89 0.90 0.91 0.95 0.94 0.93 0.93 0.90 0.91 0.93 0.96 0.98 0.97 0.96 0.95 0.94 0.93 0.93
1.02 0.95 0.94 0.95 0.92 0.94 0.97 0.95 0.94 0.92 0.93 0.94 0.93 0.95 0.97 0.99 0.98 0.93 0.93 0.92 0.91 0.88
1.10 1.06 1.01 0.97 0.98 0.98 0.98 0.97 0.97 0.97 0.97 0.97 0.95 0.96 0.99 1.02 0.98 0.93 0.92 0.92 0.90 0.86
1.16 1.12 1.09 1.06 1.02 1.01 1.01 0.98 0.97 0.98 0.98 0.98 0.97 0.98 0.98 0.99 0.98 0.93 0.89 0.86 0.86 0.86
1.15 1.17 1.13 1.13 1.13 1.09 1.03 0.99 0.95 0.97 0.99 0.98 0.95 0.94 0.94 0.94 0.95 0.92 0.87 0.82 0.79 0.77

GFSNIL_prec_pwat_105.txt.gz
Precipitable_Water
1.08 1.14 1.20 1.24 1.31 1.39 1.40 1.39 1.43 1.42 1.37 1.36 1.33 1.30 1.31 1.27 1.25 1.22 1.16 1.08 1.08 1.05
0.95 1.03 1.08 1.15 1.26 1.34 1.38 1.42 1.43 1.42 1.37 1.36 1.36 1.37 1.30 1.24 1.26 1.22 1.21 1.16 1.15 1.13
0.88 0.92 0.93 1.02 1.08 1.17 1.26 1.34 1.39 1.41 1.39 1.37 1.38 1.39 1.35 1.32 1.31 1.25 1.20 1.18 1.15 1.17
0.83 0.89 0.93 0.94 1.01 1.09 1.17 1.23 1.30 1.34 1.35 1.35 1.35 1.36 1.30 1.28 1.28 1.21 1.20 1.18 1.15 1.13
0.81 0.84 0.88 0.91 0.96 1.04 1.09 1.16 1.20 1.24 1.27 1.30 1.29 1.23 1.20 1.17 1.15 1.10 1.09 1.12 1.12 1.09
0.77 0.80 0.82 0.88 0.92 0.97 1.02 1.06 1.09 1.12 1.13 1.15 1.12 1.12 1.11 1.05 1.01 1.02 1.02 1.05 1.06 1.07
0.78 0.78 0.82 0.89 0.93 0.94 0.95 0.96 1.00 1.05 1.07 1.09 1.11 1.06 1.03 0.98 0.97 1.00 1.02 1.03 1.02 1.02
0.91 0.89 0.85 0.86 0.90 0.94 0.97 0.97 0.99 1.00 1.00 0.98 0.97 0.97 0.95 0.94 0.95 0.95 0.94 0.96 0.96 0.96
0.93 0.92 0.91 0.90 0.87 0.90 0.91 0.95 0.97 0.97 0.98 0.97 0.98 0.99 0.98 0.98 0.98 0.96 0.91 0.89 0.89 0.90
1.02 0.94 0.93 0.93 0.92 0.90 0.88 0.90 0.88 0.90 0.92 0.92 0.94 0.96 0.97 0.99 0.97 0.94 0.91 0.89 0.89 0.88
1.14 1.09 1.04 0.97 0.93 0.92 0.96 0.94 0.92 0.91 0.91 0.90 0.91 0.95 0.99 1.00 0.97 0.92 0.90 0.88 0.87 0.85
1.12 1.14 1.14 1.09 1.02 1.01 0.97 0.95 0.95 0.97 0.95 0.92 0.88 0.90 0.95 0.97 0.92 0.89 0.88 0.88 0.87 0.86
1.12 1.14 1.14 1.17 1.13 1.08 1.07 1.01 0.98 0.97 0.97 0.95 0.93 0.94 0.96 1.00 0.97 0.92 0.90 0.90 0.88 0.87
1.11 1.17 1.18 1.15 1.17 1.14 1.10 1.06 1.01 0.96 0.94 0.92 0.89 0.91 0.93 0.94 0.93 0.91 0.87 0.85 0.82 0.80

GFSNIL_prec_pwat_108.txt.gz
Precipitable_Water
0.97 1.06 1.15 1.17 1.21 1.31 1.41 1.41 1.40 1.39 1.33 1.27 1.16 1.03 0.98 0.93 0.98 1.03 1.05 1.03 1.02 0.99
0.92 0.99 1.05 1.12 1.20 1.31 1.40 1.44 1.43 1.41 1.34 1.30 1.23 1.18 1.26 1.18 1.16 1.17 1.16 1.15 1.12 1.08
0.91 0.94 0.98 1.01 1.06 1.16 1.29 1.41 1.40 1.38 1.38 1.35 1.31 1.25 1.23 1.20 1.20 1.17 1.18 1.14 1.12 1.13
0.93 0.93 0.95 0.95 1.02 1.09 1.19 1.30 1.35 1.39 1.39 1.36 1.33 1.28 1.26 1.25 1.22 1.19 1.21 1.15 1.18 1.13
0.93 0.93 0.93 0.94 0.97 1.07 1.13 1.20 1.25 1.33 1.38 1.36 1.35 1.33 1.30 1.27 1.25 1.22 1.18 1.19 1.19 1.14
0.88 0.91 0.91 0.93 0.97 1.01 1.03 1.08 1.18 1.22 1.27 1.30 1.31 1.30 1.31 1.27 1.25 1.27 1.23 1.22 1.18 1.13
0.84 0.87 0.89 0.94 0.97 0.99 1.01 1.01 1.03 1.08 1.15 1.19 1.22 1.25 1.24 1.23 1.20 1.16 1.13 1.11 1.08 1.09
0.81 0.87 0.88 0.88 0.93 0.97 1.01 1.02 1.02 1.00 0.99 1.05 1.09 1.15 1.17 1.14 1.11 1.06 1.00 0.99 1.01 1.01
0.91 0.86 0.83 0.86 0.87 0.92 0.94 0.98 1.01 1.02 1.04 1.02 1.04 1.07 1.08 1.09 1.03 0.99 0.94 0.92 0.93 0.93
1.06 1.00 0.94 0.90 0.88 0.86 0.89 0.94 0.94 0.96 0.99 1.01 1.05 1.07 1.05 1.03 1.00 0.97 0.94 0.92 0.90 0.87
1.15 1.12 1.12 1.08 0.99 0.91 0.89 0.90 0.92 0.93 0.95 0.96 0.98 1.01 1.01 1.00 0.98 0.94 0.92 0.91 0.89 0.87
1.14 1.11 1.10 1.09 1.09 1.09 0.97 0.92 0.89 0.95 0.96 0.94 0.95 1.00 1.01 1.00 0.95 0.91 0.90 0.89 0.88 0.85
1.12 1.14 1.08 1.09 1.08 1.11 1.12 1.04 1.00 0.94 0.92 0.94 0.94 0.97 0.98 0.98 0.92 0.87 0.86 0.86 0.85 0.82
0.99 1.05 1.11 1.11 1.12 1.12 1.06 1.06 1.06 1.01 0.97 0.93 0.91 0.92 0.95 0.96 0.92 0.89 0.84 0.84 0.82 0.82

GFSNIL_prec_pwat_114.txt.gz
Precipitable_Water
1.06 0.86 0.84 0.94 0.95 1.04 1.09 1.15 1.30 1.40 1.46 1.46 1.43 1.45 1.44 1.39 1.39 1.36 1.22 1.10 1.00 0.86
0.95 0.85 0.88 0.95 0.97 0.97 1.03 1.20 1.31 1.40 1.41 1.42 1.42 1.42 1.42 1.40 1.39 1.38 1.26 1.18 0.96 0.91
0.92 0.90 0.93 0.96 0.92 0.93 1.04 1.16 1.29 1.34 1.38 1.39 1.38 1.38 1.38 1.37 1.39 1.33 1.26 1.05 0.94 0.98
0.90 0.90 0.93 0.93 0.92 0.96 1.06 1.15 1.26 1.32 1.34 1.35 1.32 1.34 1.33 1.31 1.22 1.08 0.91 0.87 0.91 0.99
0.93 0.91 0.90 0.90 0.92 0.99 1.04 1.11 1.18 1.32 1.31 1.34 1.28 1.27 1.24 1.08 0.98 0.95 0.89 0.94 0.92 0.94
0.92 0.89 0.89 0.90 0.92 0.96 1.03 1.06 1.15 1.20 1.28 1.31 1.29 1.21 1.15 1.05 1.01 1.05 1.05 1.06 1.04 1.04
0.94 0.91 0.90 0.91 0.91 0.93 1.01 1.04 1.09 1.14 1.23 1.31 1.31 1.29 1.27 1.23 1.21 1.16 1.14 1.10 1.08 1.12
0.96 0.93 0.90 0.90 0.92 0.94 0.95 1.00 1.06 1.09 1.15 1.21 1.26 1.31 1.28 1.24 1.22 1.21 1.17 1.15 1.15 1.14
0.95 0.90 0.88 0.88 0.89 0.91 0.93 0.96 0.98 0.99 1.04 1.11 1.19 1.23 1.25 1.26 1.21 1.23 1.20 1.12 1.11 1.12
1.02 0.92 0.87 0.87 0.87 0.86 0.89 0.93 0.93 0.95 0.97 0.98 1.02 1.10 1.12 1.14 1.14 1.15 1.14 1.10 1.07 1.04
1.07 1.05 0.99 0.91 0.86 0.86 0.89 0.89 0.91 0.92 0.95 0.97 0.99 1.01 1.04 1.08 1.09 1.10 1.07 1.07 1.05 1.05
1.07 1.07 1.07 1.09 1.07 1.03 0.95 0.90 0.92 0.98 0.98 0.96 0.98 1.02 1.02 1.02 1.01 1.00 1.02 1.02 1.02 1.01
1.05 1.04 1.07 1.11 1.16 1.18 1.17 1.10 1.07 1.03 1.04 1.06 1.03 1.03 1.04 1.03 0.99 0.94 0.93 0.93 0.92 0.94
0.98 1.01 1.04 1.08 1.13 1.17 1.17 1.13 1.11 1.07 1.03 1.03 1.03 1.03 1.01 1.02 0.99 0.94 0.91 0.88 0.86 0.84

GFSNIL_prec_pwat_117.txt.gz
Precipitable_Water
1.13 1.13 1.11 1.02 0.92 0.89 0.95 1.03 1.11 1.20 1.22 1.29 1.42 1.46 1.48 1.45 1.44 1.42 1.39 1.28 1.23 1.20
1.14 1.12 1.08 0.94 0.96 0.97 0.97 0.98 1.01 1.09 1.19 1.34 1.41 1.46 1.45 1.43 1.39 1.42 1.40 1.33 1.25 1.21
1.16 1.17 1.03 0.95 0.99 0.96 0.94 0.96 1.00 1.08 1.22 1.32 1.40 1.42 1.42 1.39 1.41 1.39 1.40 1.35 1.27 1.26
1.14 1.13 0.97 1.00 1.00 0.94 0.93 0.97 1.02 1.08 1.18 1.28 1.33 1.38 1.37 1.36 1.37 1.37 1.35 1.33 1.26 1.25
1.16 1.04 0.96 1.02 0.99 0.94 0.92 0.99 1.03 1.07 1.18 1.28 1.33 1.35 1.33 1.32 1.35 1.35 1.32 1.32 1.29 1.23
1.08 0.98 0.99 1.02 0.96 0.92 0.92 0.97 1.02 1.07 1.13 1.27 1.31 1.31 1.32 1.33 1.33 1.34 1.34 1.34 1.28 1.28
1.00 0.96 1.04 1.06 0.98 0.91 0.92 0.95 1.00 1.07 1.10 1.21 1.32 1.30 1.30 1.28 1.26 1.23 1.20 1.17 1.06 0.96
0.99 1.02 1.12 1.05 0.98 0.93 0.92 0.95 1.00 1.02 1.10 1.16 1.22 1.27 1.28 1.22 1.14 1.10 1.04 1.08 1.10 1.10
1.01 1.09 1.10 1.03 1.01 0.93 0.93 0.94 0.96 0.97 1.02 1.08 1.14 1.26 1.25 1.26 1.20 1.17 1.15 1.16 1.14 1.12
1.08 1.06 1.02 1.04 0.99 0.93 0.93 0.95 0.94 0.95 0.98 0.98 1.08 1.19 1.22 1.24 1.24 1.20 1.19 1.19 1.15 1.09
1.06 1.06 1.02 1.01 0.96 0.92 0.94 0.94 0.94 0.94 0.96 0.97 1.01 1.06 1.09 1.12 1.13 1.14 1.14 1.14 1.17 1.12
1.04 1.03 0.98 0.99 0.97 0.96 0.93 0.93 0.95 0.97 0.96 0.96 0.98 1.01 1.01 1.04 1.04 1.04 1.04 1.08 1.10 1.11
1.04 1.03 0.99 0.97 1.01 1.05 1.03 0.98 0.97 0.96 0.98 1.02 1.00 1.04 1.01 1.00 0.96 0.93 0.94 0.97 0.97 1.00
0.97 1.02 1.05 1.05 1.06 1.09 1.13 1.11 1.08 1.05 1.01 1.00 1.01 1.04 1.09 1.09 1.04 0.98 0.93 0.91 0.90 0.91

GFSNIL_prec_pwat_123.txt.gz
Precipitable_Water
1.20 1.19 1.15 1.14 1.14 1.12 1.15 1.17 1.19 1.20 1.15 1.12 1.13 1.14 1.16 1.16 1.18 1.22 1.25 1.28 1.29 1.33
1.21 1.20 1.20 1.21 1.22 1.20 1.22 1.21 1.19 1.20 1.11 1.14 1.11 1.11 1.13 1.11 1.10 1.15 1.25 1.26 1.38 1.34
1.22 1.20 1.24 1.26 1.20 1.21 1.23 1.22 1.20 1.16 1.14 1.10 1.10 1.09 1.09 1.09 1.14 1.22 1.28 1.31 1.41 1.39
1.18 1.20 1.24 1.22 1.24 1.26 1.22 1.22 1.22 1.10 1.11 1.04 1.02 1.05 1.07 1.10 1.17 1.23 1.28 1.38 1.39 1.38
1.11 1.21 1.25 1.22 1.22 1.24 1.19 1.23 1.17 1.09 1.03 0.98 0.98 1.03 1.05 1.11 1.20 1.25 1.25 1.34 1.36 1.34
1.16 1.21 1.22 1.23 1.21 1.25 1.22 1.19 1.07 1.05 0.99 0.96 0.98 1.00 1.04 1.10 1.19 1.26 1.34 1.38 1.37 1.36
1.11 1.18 1.18 1.21 1.24 1.23 1.23 1.13 1.06 1.04 1.01 0.99 0.99 1.00 1.06 1.15 1.24 1.28 1.35 1.35 1.36 1.37
1.10 1.17 1.19 1.21 1.22 1.21 1.17 1.10 1.06 1.03 1.04 1.03 1.01 1.03 1.07 1.15 1.20 1.26 1.29 1.32 1.36 1.38
1.06 1.10 1.14 1.19 1.19 1.19 1.15 1.09 1.05 1.04 1.08 1.00 1.01 1.04 1.07 1.12 1.19 1.26 1.26 1.24 1.28 1.32
1.00 1.05 1.06 1.13 1.17 1.16 1.14 1.09 1.01 1.05 1.07 0.99 1.01 1.02 1.06 1.15 1.21 1.22 1.25 1.25 1.25 1.25
0.94 0.99 1.04 1.08 1.07 1.14 1.16 1.08 1.06 1.06 1.08 1.01 1.00 1.03 1.06 1.14 1.18 1.20 1.23 1.24 1.22 1.21
0.83 0.91 0.97 0.99 1.01 1.06 1.09 1.11 1.14 1.15 1.09 1.01 1.00 1.02 1.05 1.09 1.12 1.12 1.11 1.14 1.16 1.15
0.69 0.82 0.90 0.96 0.98 0.97 1.06 1.09 1.19 1.16 1.09 1.06 1.01 1.02 1.03 1.03 1.00 0.97 0.97 0.98 0.99 1.04
0.61 0.70 0.83 0.93 1.01 0.98 1.01 1.03 1.08 1.09 1.04 1.03 1.01 1.00 1.01 1.00 0.97 0.94 0.90 0.90 0.90 0.91

GFSNIL_prec_pwat_129.txt.gz
Precipitable_Water
1.18 1.24 1.30 1.25 1.19 1.22 1.24 1.25 1.26 1.29 1.29 1.29 1.27 1.27 1.29 1.28 1.21 1.15 1.12 1.09 1.09 1.09
1.28 1.28 1.18 1.23 1.29 1.27 1.28 1.28 1.29 1.25 1.24 1.24 1.25 1.27 1.28 1.25 1.15 1.13 1.13 1.11 1.08 1.08
1.26 1.24 1.27 1.28 1.25 1.26 1.32 1.34 1.22 1.23 1.22 1.23 1.24 1.25 1.26 1.20 1.17 1.13 1.10 1.12 1.04 1.05
1.21 1.27 1.31 1.28 1.29 1.31 1.37 1.31 1.25 1.25 1.23 1.22 1.19 1.18 1.17 1.13 1.12 1.08 1.08 1.10 1.07 1.00
1.25 1.28 1.30 1.28 1.28 1.34 1.31 1.30 1.31 1.27 1.23 1.20 1.19 1.20 1.16 1.14 1.14 1.07 0.99 1.00 1.00 1.03
1.14 1.16 1.18 1.21 1.22 1.29 1.26 1.24 1.30 1.28 1.22 1.20 1.21 1.22 1.19 1.17 1.11 1.06 1.06 1.06 1.03 1.09
0.97 1.03 1.14 1.28 1.28 1.27 1.30 1.29 1.29 1.31 1.25 1.21 1.24 1.23 1.15 1.13 1.05 1.03 1.06 1.07 1.07 1.09
0.86 0.94 0.99 1.10 1.18 1.24 1.24 1.23 1.33 1.28 1.27 1.23 1.19 1.14 1.09 1.04 0.99 0.99 1.01 1.07 1.08 1.09
0.88 0.92 0.97 0.99 1.14 1.18 1.34 1.23 1.23 1.17 1.21 1.12 1.15 1.11 1.07 1.02 0.99 1.01 1.02 1.01 1.01 1.03
0.83 0.88 0.91 1.01 1.01 1.19 1.14 1.23 1.16 1.14 1.13 1.11 1.11 1.10 1.07 1.03 1.02 1.01 1.03 1.06 1.00 1.02
0.79 0.82 0.88 0.90 0.95 1.02 1.08 1.15 1.14 1.11 1.13 1.10 1.11 1.11 1.06 1.03 1.04 1.02 1.06 1.07 1.03 1.04
0.62 0.72 0.80 0.83 0.86 0.89 0.96 1.08 1.11 1.14 1.14 1.08 1.08 1.11 1.06 1.03 1.03 0.99 1.03 1.08 1.05 1.02
0.53 0.55 0.59 0.70 0.79 0.85 0.90 0.94 0.97 1.02 1.09 1.08 1.04 1.07 1.05 1.04 1.02 0.97 0.99 1.06 1.04 1.04
0.50 0.52 0.55 0.57 0.62 0.69 0.79 0.89 0.95 0.93 1.01 1.02 1.04 1.05 1.06 1.04 1.01 1.00 1.00 0.99 1.00 0.97

GFSNIL_prec_pwat_132.txt.gz
Precipitable_Water
1.16 1.12 1.09 1.09 1.09 1.12 1.16 1.19 1.25 1.33 1.37 1.29 1.24 1.30 1.30 1.28 1.25 1.25 1.22 1.14 1.12 1.06
1.21 1.16 1.19 1.23 1.25 1.32 1.34 1.23 1.25 1.38 1.35 1.27 1.29 1.31 1.32 1.26 1.23 1.23 1.23 1.18 1.13 1.08
1.30 1.34 1.33 1.37 1.32 1.37 1.32 1.27 1.30 1.32 1.34 1.31 1.30 1.30 1.30 1.26 1.26 1.22 1.24 1.23 1.12 1.07
1.30 1.35 1.39 1.38 1.40 1.35 1.31 1.30 1.29 1.31 1.39 1.26 1.26 1.26 1.25 1.24 1.24 1.21 1.22 1.17 1.11 1.07
1.24 1.18 1.21 1.34 1.34 1.43 1.35 1.36 1.36 1.38 1.33 1.26 1.26 1.26 1.25 1.19 1.20 1.17 1.12 1.09 1.10 1.04
1.22 1.20 1.25 1.28 1.36 1.39 1.36 1.33 1.35 1.39 1.37 1.27 1.24 1.21 1.20 1.18 1.14 1.11 1.13 1.15 1.09 1.03
1.16 1.17 1.27 1.32 1.35 1.31 1.29 1.29 1.32 1.34 1.38 1.31 1.25 1.22 1.21 1.20 1.19 1.18 1.17 1.16 1.09 1.05
0.93 0.99 1.08 1.12 1.12 1.23 1.25 1.27 1.29 1.32 1.39 1.40 1.31 1.30 1.20 1.23 1.19 1.14 1.10 1.10 1.05 1.05
0.87 0.85 0.85 0.90 0.99 1.02 1.12 1.18 1.24 1.27 1.26 1.27 1.39 1.33 1.25 1.17 1.10 1.08 1.02 0.95 0.99 1.03
0.82 0.86 0.88 0.95 0.92 0.96 1.02 1.11 1.15 1.22 1.26 1.30 1.25 1.20 1.18 1.19 1.11 1.05 1.00 0.99 1.00 0.99
0.75 0.79 0.86 0.89 0.94 0.96 0.99 1.04 1.11 1.19 1.21 1.20 1.21 1.17 1.16 1.14 1.11 1.06 1.02 1.02 1.01 1.01
0.56 0.67 0.77 0.80 0.85 0.90 0.92 0.97 1.06 1.09 1.13 1.15 1.14 1.08 1.11 1.09 1.06 1.02 0.99 1.01 1.00 1.01
0.52 0.52 0.55 0.64 0.74 0.82 0.86 0.91 0.92 0.96 1.03 1.11 1.08 1.06 1.07 1.07 1.03 0.99 0.96 0.97 0.98 1.00
0.48 0.49 0.52 0.54 0.56 0.61 0.68 0.74 0.82 0.85 0.88 0.90 0.93 0.97 1.04 1.12 1.04 1.00 0.94 0.92 0.92 0.95

GFSNIL_prec_pwat_135.txt.gz
Precipitable_Water
0.92 1.03 1.03 1.02 1.00 1.00 1.02 1.06 1.21 1.21 1.23 1.28 1.30 1.31 1.30 1.28 1.25 1.21 1.18 1.14 1.15 1.16
0.91 1.04 1.09 1.10 1.13 1.10 1.12 1.14 1.22 1.28 1.26 1.31 1.31 1.35 1.33 1.22 1.23 1.24 1.21 1.20 1.19 1.19
1.05 1.11 1.14 1.18 1.20 1.18 1.22 1.20 1.25 1.37 1.37 1.33 1.34 1.35 1.32 1.23 1.29 1.27 1.28 1.28 1.22 1.21
1.19 1.28 1.27 1.29 1.33 1.33 1.32 1.30 1.30 1.40 1.37 1.33 1.30 1.31 1.28 1.29 1.29 1.28 1.29 1.28 1.20 1.16
1.15 1.34 1.39 1.38 1.36 1.40 1.41 1.38 1.45 1.46 1.42 1.33 1.28 1.31 1.32 1.26 1.28 1.25 1.23 1.23 1.19 1.15
1.05 1.24 1.27 1.36 1.40 1.35 1.31 1.30 1.35 1.36 1.33 1.39 1.38 1.30 1.27 1.29 1.24 1.24 1.26 1.23 1.17 1.15
1.06 1.15 1.20 1.24 1.28 1.30 1.28 1.20 1.21 1.37 1.40 1.45 1.45 1.38 1.32 1.26 1.26 1.22 1.18 1.17 1.16 1.14
1.07 1.11 1.13 1.15 1.21 1.23 1.27 1.33 1.40 1.38 1.38 1.42 1.45 1.39 1.36 1.27 1.23 1.22 1.18 1.20 1.20 1.18
0.99 1.04 1.06 1.10 1.14 1.14 1.16 1.21 1.29 1.34 1.34 1.32 1.38 1.41 1.40 1.36 1.31 1.23 1.21 1.13 1.14 1.12
0.87 0.86 0.88 0.93 0.99 1.03 1.09 1.18 1.19 1.24 1.30 1.30 1.37 1.38 1.42 1.38 1.29 1.19 1.14 1.09 1.05 1.02
0.80 0.82 0.85 0.91 0.92 0.92 0.93 0.99 1.07 1.08 1.15 1.23 1.19 1.32 1.27 1.25 1.21 1.16 1.14 1.12 1.09 1.03
0.59 0.67 0.76 0.80 0.85 0.92 0.95 1.02 1.07 1.05 1.09 1.07 1.14 1.17 1.18 1.19 1.18 1.11 1.06 1.06 1.06 1.03
0.54 0.54 0.56 0.64 0.75 0.80 0.88 0.88 0.92 0.97 0.99 1.03 1.02 1.08 1.13 1.13 1.11 1.01 0.98 0.98 0.99 1.02
0.52 0.52 0.54 0.56 0.58 0.63 0.71 0.80 0.83 0.84 0.89 0.97 1.00 1.02 1.06 1.10 1.09 0.98 0.96 0.95 0.93 0.95